Wetterdaten: aktuell Sonntag, 16.01.2022 21:00
Datum Zeit Temp. Aussen Temp. o. S. Temp +5cm Feuchte Auss Luftdruck Regen Sonnenschein Regendauer Solar Windben Empfang
16.01.2022 21:00 4,4 C 3,9 C 3,3 C 98 % 1029,0 hPa 0,0 l/m 0 min 0 min 0 W/m 12,9 km/h (3 Bft) 100,00 %
16.01.2022 20:58 4,4 C 3,9 C 3,3 C 98 % 1028,9 hPa 0,0 l/m 0 min 0 min 0 W/m 6,4 km/h (2 Bft) 97,87 %
16.01.2022 20:56 4,4 C 3,9 C 3,3 C 98 % 1028,9 hPa 0,0 l/m 0 min 0 min 0 W/m 9,7 km/h (2 Bft) 97,87 %
16.01.2022 20:54 4,4 C 3,9 C 3,3 C 98 % 1028,9 hPa 0,0 l/m 0 min 0 min 0 W/m 12,9 km/h (3 Bft) 97,83 %
16.01.2022 20:52 4,4 C 3,9 C 3,3 C 98 % 1028,9 hPa 0,0 l/m 0 min 0 min 0 W/m 12,9 km/h (3 Bft) 97,87 %
16.01.2022 20:50 4,4 C 3,9 C 3,3 C 98 % 1028,9 hPa 0,0 l/m 0 min 0 min 0 W/m 6,4 km/h (2 Bft) 97,87 %
16.01.2022 20:48 4,4 C 3,9 C 3,3 C 98 % 1028,8 hPa 0,0 l/m 0 min 0 min 0 W/m 12,9 km/h (3 Bft) 97,87 %
16.01.2022 20:46 4,4 C 3,9 C 3,3 C 98 % 1028,8 hPa 0,0 l/m 0 min 0 min 0 W/m 9,7 km/h (2 Bft) 95,74 %
16.01.2022 20:44 4,4 C 3,9 C 3,3 C 98 % 1028,7 hPa 0,0 l/m 0 min 0 min 0 W/m 19,3 km/h (3 Bft) 95,74 %
16.01.2022 20:42 4,4 C 3,9 C 3,3 C 98 % 1028,8 hPa 0,0 l/m 0 min 0 min 0 W/m 6,4 km/h (2 Bft) 100,00 %
16.01.2022 20:41 4,4 C 3,9 C 3,3 C 98 % 1028,8 hPa 0,0 l/m 0 min 0 min 0 W/m 16,1 km/h (3 Bft) 98,78 %
16.01.2022 20:36 4,4 C 3,9 C 3,3 C 98 % 1029,0 hPa 0,0 l/m 0 min 0 min 0 W/m 12,9 km/h (3 Bft) 95,74 %
16.01.2022 20:34 4,4 C 3,9 C 3,3 C 98 % 1028,8 hPa 0,0 l/m 0 min 0 min 0 W/m 12,9 km/h (3 Bft) 97,87 %
16.01.2022 20:32 4,3 C 3,9 C 3,3 C 98 % 1028,6 hPa 0,0 l/m 0 min 0 min 0 W/m 12,9 km/h (3 Bft) 97,96 %
16.01.2022 20:30 4,3 C 3,9 C 3,3 C 98 % 1028,7 hPa 0,0 l/m 0 min 0 min 0 W/m 19,3 km/h (3 Bft) 95,92 %
16.01.2022 20:28 4,3 C 3,9 C 2,8 C 98 % 1028,7 hPa 0,0 l/m 0 min 0 min 0 W/m 12,9 km/h (3 Bft) 95,24 %
16.01.2022 20:26 4,3 C 3,9 C 2,8 C 98 % 1028,8 hPa 0,0 l/m 0 min 0 min 0 W/m 12,9 km/h (3 Bft) 95,74 %
16.01.2022 20:24 4,3 C 3,9 C 2,8 C 98 % 1028,7 hPa 0,0 l/m 0 min 0 min 0 W/m 16,1 km/h (3 Bft) 93,62 %
16.01.2022 20:22 4,3 C 3,9 C 2,8 C 98 % 1028,7 hPa 0,0 l/m 0 min 0 min 0 W/m 16,1 km/h (3 Bft) 97,87 %
16.01.2022 20:20 4,3 C 3,9 C 2,8 C 98 % 1028,6 hPa 0,0 l/m 0 min 0 min 0 W/m 12,9 km/h (3 Bft) 97,83 %
16.01.2022 20:18 4,3 C 3,9 C 2,8 C 98 % 1028,7 hPa 0,0 l/m 0 min 0 min 0 W/m 9,7 km/h (2 Bft) 97,87 %
16.01.2022 20:16 4,3 C 3,9 C 2,8 C 98 % 1028,6 hPa 0,0 l/m 0 min 0 min 0 W/m 9,7 km/h (2 Bft) 95,74 %
16.01.2022 20:14 4,3 C 3,9 C 2,8 C 98 % 1028,6 hPa 0,0 l/m 0 min 0 min 0 W/m 9,7 km/h (2 Bft) 97,96 %
16.01.2022 20:12 4,3 C 3,9 C 2,8 C 98 % 1028,7 hPa 0,0 l/m 0 min 0 min 0 W/m 6,4 km/h (2 Bft) 97,87 %
16.01.2022 20:10 4,3 C 3,9 C 2,8 C 98 % 1028,8 hPa 0,0 l/m 0 min 0 min 0 W/m 12,9 km/h (3 Bft) 97,87 %
16.01.2022 20:08 4,3 C 3,9 C 2,8 C 98 % 1028,6 hPa 0,0 l/m 0 min 0 min 0 W/m 19,3 km/h (3 Bft) 97,87 %
16.01.2022 20:06 4,3 C 3,9 C 2,8 C 98 % 1028,7 hPa 0,0 l/m 0 min 0 min 0 W/m 12,9 km/h (3 Bft) 97,83 %
16.01.2022 20:04 4,3 C 3,9 C 2,8 C 98 % 1028,6 hPa 0,0 l/m 0 min 0 min 0 W/m 19,3 km/h (3 Bft) 95,74 %
16.01.2022 20:02 4,3 C 3,9 C 2,8 C 98 % 1028,7 hPa 0,0 l/m 0 min 0 min 0 W/m 12,9 km/h (3 Bft) 97,87 %
16.01.2022 20:00 4,3 C 3,9 C 2,8 C 98 % 1028,6 hPa 0,0 l/m 0 min 0 min 0 W/m 12,9 km/h (3 Bft) 97,87 %
16.01.2022 19:58 4,3 C 3,9 C 2,8 C 98 % 1028,6 hPa 0,0 l/m 0 min 0 min 0 W/m 12,9 km/h (3 Bft) 95,74 %
16.01.2022 19:56 4,3 C 3,9 C 2,8 C 98 % 1028,7 hPa 0,0 l/m 0 min 0 min 0 W/m 12,9 km/h (3 Bft) 95,92 %
16.01.2022 19:54 4,3 C 3,9 C 2,8 C 97 % 1028,7 hPa 0,0 l/m 0 min 0 min 0 W/m 12,9 km/h (3 Bft) 97,87 %
16.01.2022 19:52 4,3 C 3,9 C 2,8 C 97 % 1028,7 hPa 0,0 l/m 0 min 0 min 0 W/m 12,9 km/h (3 Bft) 100,00 %
16.01.2022 19:50 4,3 C 3,9 C 2,8 C 97 % 1028,8 hPa 0,0 l/m 0 min 0 min 0 W/m 16,1 km/h (3 Bft) 98,00 %
16.01.2022 19:48 4,3 C 3,9 C 2,8 C 97 % 1028,7 hPa 0,0 l/m 0 min 0 min 0 W/m 16,1 km/h (3 Bft) 100,00 %
16.01.2022 19:46 4,3 C 3,9 C 2,8 C 97 % 1028,8 hPa 0,0 l/m 0 min 0 min 0 W/m 9,7 km/h (2 Bft) 100,00 %
16.01.2022 19:44 4,3 C 3,9 C 2,8 C 97 % 1028,8 hPa 0,0 l/m 0 min 0 min 0 W/m 16,1 km/h (3 Bft) 100,00 %
16.01.2022 19:42 4,3 C 3,9 C 2,8 C 97 % 1028,7 hPa 0,0 l/m 0 min 0 min 0 W/m 12,9 km/h (3 Bft) 100,00 %
16.01.2022 19:40 4,3 C 3,9 C 2,8 C 97 % 1028,7 hPa 0,0 l/m 0 min 0 min 0 W/m 9,7 km/h (2 Bft) 97,87 %
16.01.2022 19:38 4,3 C 3,9 C 2,8 C 97 % 1028,6 hPa 0,0 l/m 0 min 0 min 0 W/m 22,5 km/h (4 Bft) 100,00 %
16.01.2022 19:36 4,3 C 3,9 C 2,8 C 97 % 1028,6 hPa 0,0 l/m 0 min 0 min 0 W/m 6,4 km/h (2 Bft) 97,87 %
16.01.2022 19:34 4,3 C 3,9 C 2,8 C 97 % 1028,5 hPa 0,0 l/m 0 min 0 min 0 W/m 12,9 km/h (3 Bft) 100,00 %
16.01.2022 19:32 4,2 C 3,9 C 2,8 C 97 % 1028,5 hPa 0,0 l/m 0 min 0 min 0 W/m 9,7 km/h (2 Bft) 100,00 %
16.01.2022 19:30 4,2 C 3,9 C 2,8 C 97 % 1028,4 hPa 0,0 l/m 0 min 0 min 0 W/m 16,1 km/h (3 Bft) 100,00 %
16.01.2022 19:28 4,3 C 3,9 C 2,8 C 97 % 1028,3 hPa 0,0 l/m 0 min 0 min 0 W/m 19,3 km/h (3 Bft) 100,00 %
16.01.2022 19:26 4,2 C 3,9 C 2,8 C 97 % 1028,3 hPa 0,0 l/m 0 min 0 min 0 W/m 22,5 km/h (4 Bft) 100,00 %
16.01.2022 19:24 4,2 C 3,9 C 2,8 C 97 % 1028,3 hPa 0,0 l/m 0 min 0 min 0 W/m 12,9 km/h (3 Bft) 100,00 %
16.01.2022 19:22 4,2 C 3,3 C 2,8 C 97 % 1028,3 hPa 0,0 l/m 0 min 0 min 0 W/m 9,7 km/h (2 Bft) 97,87 %
16.01.2022 19:20 4,2 C 3,3 C 2,8 C 97 % 1028,2 hPa 0,0 l/m 0 min 0 min 0 W/m 16,1 km/h (3 Bft) 100,00 %
16.01.2022 19:18 4,2 C 3,3 C 2,8 C 97 % 1028,1 hPa 0,0 l/m 0 min 0 min 0 W/m 12,9 km/h (3 Bft) 100,00 %
16.01.2022 19:16 4,2 C 3,3 C 2,8 C 97 % 1028,2 hPa 0,0 l/m 0 min 0 min 0 W/m 12,9 km/h (3 Bft) 100,00 %
16.01.2022 19:14 4,2 C 3,3 C 2,8 C 97 % 1028,1 hPa 0,0 l/m 0 min 0 min 0 W/m 16,1 km/h (3 Bft) 100,00 %
16.01.2022 19:12 4,2 C 3,3 C 2,8 C 97 % 1028,0 hPa 0,0 l/m 0 min 0 min 0 W/m 12,9 km/h (3 Bft) 100,00 %
16.01.2022 19:10 4,2 C 3,3 C 2,8 C 97 % 1027,9 hPa 0,0 l/m 0 min 0 min 0 W/m 12,9 km/h (3 Bft) 100,00 %
16.01.2022 19:08 4,2 C 3,3 C 2,8 C 97 % 1027,9 hPa 0,0 l/m 0 min 0 min 0 W/m 16,1 km/h (3 Bft) 100,00 %
16.01.2022 19:06 4,2 C 3,3 C 2,8 C 97 % 1027,9 hPa 0,0 l/m 0 min 0 min 0 W/m 12,9 km/h (3 Bft) 97,87 %
16.01.2022 19:04 4,2 C 3,3 C 2,8 C 97 % 1027,9 hPa 0,0 l/m 0 min 0 min 0 W/m 16,1 km/h (3 Bft) 97,87 %
16.01.2022 19:02 4,3 C 3,3 C 2,8 C 97 % 1027,9 hPa 0,0 l/m 0 min 0 min 0 W/m 19,3 km/h (3 Bft) 100,00 %
16.01.2022 19:00 4,3 C 3,3 C 2,8 C 97 % 1027,8 hPa 0,0 l/m 0 min 0 min 0 W/m 16,1 km/h (3 Bft) 93,62 %
16.01.2022 18:58 4,3 C 3,3 C 2,8 C 97 % 1027,8 hPa 0,0 l/m 0 min 0 min 0 W/m 12,9 km/h (3 Bft) 95,74 %
16.01.2022 18:56 4,3 C 3,3 C 2,8 C 97 % 1027,8 hPa 0,0 l/m 0 min 0 min 0 W/m 12,9 km/h (3 Bft) 97,87 %
16.01.2022 18:54 4,3 C 3,3 C 2,8 C 97 % 1027,8 hPa 0,0 l/m 0 min 0 min 0 W/m 6,4 km/h (2 Bft) 97,87 %
16.01.2022 18:52 4,3 C 3,3 C 2,8 C 97 % 1027,8 hPa 0,0 l/m 0 min 0 min 0 W/m 12,9 km/h (3 Bft) 95,65 %
16.01.2022 18:50 4,3 C 3,3 C 2,8 C 96 % 1027,8 hPa 0,0 l/m 0 min 0 min 0 W/m 6,4 km/h (2 Bft) 97,87 %
16.01.2022 18:48 4,3 C 3,3 C 2,8 C 97 % 1027,8 hPa 0,0 l/m 0 min 2 min 0 W/m 3,2 km/h (1 Bft) 89,36 %
16.01.2022 18:46 4,3 C 3,3 C 2,8 C 96 % 1027,8 hPa 0,0 l/m 0 min 0 min 0 W/m 6,4 km/h (2 Bft) 93,62 %
16.01.2022 18:44 4,3 C 3,3 C 2,8 C 96 % 1027,8 hPa 0,0 l/m 0 min 2 min 0 W/m 9,7 km/h (2 Bft) 95,74 %
16.01.2022 18:42 4,3 C 3,3 C 2,8 C 96 % 1027,9 hPa 0,2 l/m 0 min 2 min 0 W/m 12,9 km/h (3 Bft) 97,87 %
16.01.2022 18:40 4,3 C 3,3 C 2,8 C 96 % 1027,9 hPa 0,0 l/m 0 min 2 min 0 W/m 6,4 km/h (2 Bft) 95,65 %
16.01.2022 18:38 4,3 C 3,3 C 2,8 C 96 % 1027,8 hPa 0,0 l/m 0 min 2 min 0 W/m 12,9 km/h (3 Bft) 95,74 %
16.01.2022 18:36 4,3 C 3,3 C 2,8 C 96 % 1027,7 hPa 0,0 l/m 0 min 2 min 0 W/m 12,9 km/h (3 Bft) 95,74 %
16.01.2022 18:34 4,3 C 3,9 C 2,8 C 96 % 1027,7 hPa 0,2 l/m 0 min 2 min 0 W/m 9,7 km/h (2 Bft) 95,74 %
16.01.2022 18:32 4,3 C 3,9 C 3,3 C 96 % 1027,7 hPa 0,0 l/m 0 min 0 min 0 W/m 16,1 km/h (3 Bft) 93,62 %
16.01.2022 18:30 4,3 C 3,9 C 3,3 C 96 % 1027,7 hPa 0,0 l/m 0 min 0 min 0 W/m 12,9 km/h (3 Bft) 95,74 %
16.01.2022 18:28 4,3 C 3,9 C 3,3 C 96 % 1027,6 hPa 0,0 l/m 0 min 0 min 0 W/m 12,9 km/h (3 Bft) 97,83 %
16.01.2022 18:26 4,3 C 3,9 C 3,3 C 96 % 1027,6 hPa 0,0 l/m 0 min 0 min 0 W/m 16,1 km/h (3 Bft) 97,87 %
16.01.2022 18:24 4,3 C 3,9 C 3,3 C 96 % 1027,5 hPa 0,0 l/m 0 min 0 min 0 W/m 16,1 km/h (3 Bft) 95,74 %
16.01.2022 18:22 4,3 C 3,9 C 2,8 C 96 % 1027,4 hPa 0,0 l/m 0 min 0 min 0 W/m 19,3 km/h (3 Bft) 97,87 %
16.01.2022 18:20 4,3 C 3,9 C 2,8 C 96 % 1027,3 hPa 0,0 l/m 0 min 0 min 0 W/m 22,5 km/h (4 Bft) 97,87 %
16.01.2022 18:18 4,3 C 3,9 C 3,3 C 96 % 1027,3 hPa 0,0 l/m 0 min 0 min 0 W/m 12,9 km/h (3 Bft) 97,87 %
16.01.2022 18:16 4,3 C 3,9 C 3,3 C 96 % 1027,3 hPa 0,0 l/m 0 min 0 min 0 W/m 9,7 km/h (2 Bft) 97,83 %
16.01.2022 18:14 4,3 C 3,9 C 3,3 C 96 % 1027,3 hPa 0,0 l/m 0 min 0 min 0 W/m 19,3 km/h (3 Bft) 95,74 %
16.01.2022 18:12 4,3 C 3,9 C 2,8 C 96 % 1027,2 hPa 0,0 l/m 0 min 0 min 0 W/m 16,1 km/h (3 Bft) 97,87 %
16.01.2022 18:10 4,3 C 3,9 C 2,8 C 96 % 1027,3 hPa 0,0 l/m 0 min 0 min 0 W/m 19,3 km/h (3 Bft) 97,87 %
16.01.2022 18:08 4,3 C 3,9 C 2,8 C 96 % 1027,3 hPa 0,0 l/m 0 min 0 min 0 W/m 12,9 km/h (3 Bft) 97,87 %
16.01.2022 18:06 4,3 C 3,9 C 2,8 C 96 % 1027,2 hPa 0,0 l/m 0 min 0 min 0 W/m 12,9 km/h (3 Bft) 97,87 %
16.01.2022 18:04 4,3 C 3,9 C 2,8 C 96 % 1027,2 hPa 0,0 l/m 0 min 0 min 0 W/m 16,1 km/h (3 Bft) 95,65 %
16.01.2022 18:02 4,3 C 3,9 C 2,8 C 96 % 1027,2 hPa 0,0 l/m 0 min 0 min 0 W/m 12,9 km/h (3 Bft) 97,87 %
16.01.2022 18:00 4,3 C 3,9 C 3,3 C 96 % 1027,2 hPa 0,0 l/m 0 min 0 min 0 W/m 16,1 km/h (3 Bft) 97,87 %
16.01.2022 17:58 4,3 C 3,9 C 3,3 C 96 % 1027,2 hPa 0,0 l/m 0 min 0 min 0 W/m 22,5 km/h (4 Bft) 97,87 %
16.01.2022 17:56 4,3 C 3,9 C 3,3 C 96 % 1027,2 hPa 0,0 l/m 0 min 0 min 0 W/m 16,1 km/h (3 Bft) 95,74 %
16.01.2022 17:54 4,3 C 3,9 C 3,3 C 96 % 1027,2 hPa 0,0 l/m 0 min 0 min 0 W/m 16,1 km/h (3 Bft) 97,87 %
16.01.2022 17:52 4,3 C 3,9 C 3,3 C 96 % 1027,3 hPa 0,0 l/m 0 min 0 min 0 W/m 12,9 km/h (3 Bft) 45,95 %
16.01.2022 17:50 4,3 C 3,9 C 3,3 C 96 % 1027,2 hPa 0,0 l/m 0 min 0 min 0 W/m 29,0 km/h (5 Bft) 97,87 %
16.01.2022 17:48 4,3 C 3,9 C 3,3 C 96 % 1027,3 hPa 0,0 l/m 0 min 0 min 0 W/m 12,9 km/h (3 Bft) 95,74 %
16.01.2022 17:46 4,3 C 3,9 C 3,3 C 96 % 1027,3 hPa 0,0 l/m 0 min 0 min 0 W/m 22,5 km/h (4 Bft) 93,62 %
16.01.2022 17:44 4,3 C 3,9 C 3,3 C 96 % 1027,2 hPa 0,0 l/m 0 min 0 min 0 W/m 19,3 km/h (3 Bft) 97,87 %
16.01.2022 17:42 4,3 C 3,9 C 3,3 C 95 % 1027,3 hPa 0,0 l/m 0 min 0 min 0 W/m 16,1 km/h (3 Bft) 97,83 %
16.01.2022 17:40 4,3 C 3,9 C 3,3 C 95 % 1027,2 hPa 0,0 l/m 0 min 0 min 0 W/m 22,5 km/h (4 Bft) 97,87 %
16.01.2022 17:38 4,3 C 3,9 C 3,3 C 95 % 1027,0 hPa 0,0 l/m 0 min 0 min 0 W/m 6,4 km/h (2 Bft) 97,87 %
16.01.2022 17:36 4,3 C 3,9 C 3,3 C 95 % 1027,0 hPa 0,0 l/m 0 min 0 min 0 W/m 9,7 km/h (2 Bft) 97,87 %
16.01.2022 17:34 4,3 C 3,9 C 3,3 C 95 % 1027,0 hPa 0,0 l/m 0 min 0 min 0 W/m 12,9 km/h (3 Bft) 97,87 %
16.01.2022 17:32 4,3 C 3,9 C 3,3 C 95 % 1026,8 hPa 0,0 l/m 0 min 0 min 0 W/m 12,9 km/h (3 Bft) 97,87 %
16.01.2022 17:30 4,3 C 3,9 C 3,3 C 95 % 1026,8 hPa 0,0 l/m 0 min 0 min 0 W/m 19,3 km/h (3 Bft) 97,83 %
16.01.2022 17:28 4,3 C 3,9 C 3,3 C 95 % 1026,8 hPa 0,0 l/m 0 min 0 min 0 W/m 16,1 km/h (3 Bft) 97,87 %
16.01.2022 17:26 4,3 C 3,9 C 3,3 C 95 % 1026,9 hPa 0,0 l/m 0 min 0 min 0 W/m 19,3 km/h (3 Bft) 97,87 %
16.01.2022 17:24 4,3 C 3,9 C 3,3 C 95 % 1026,8 hPa 0,0 l/m 0 min 0 min 0 W/m 9,7 km/h (2 Bft) 97,87 %
16.01.2022 17:22 4,3 C 3,9 C 3,3 C 95 % 1026,8 hPa 0,0 l/m 0 min 0 min 0 W/m 6,4 km/h (2 Bft) 95,74 %
16.01.2022 17:20 4,3 C 3,9 C 3,3 C 95 % 1026,8 hPa 0,0 l/m 0 min 0 min 0 W/m 16,1 km/h (3 Bft) 97,87 %
16.01.2022 17:18 4,3 C 3,9 C 3,3 C 95 % 1026,9 hPa 0,0 l/m 0 min 0 min 0 W/m 16,1 km/h (3 Bft) 100,00 %
16.01.2022 17:16 4,3 C 3,9 C 3,3 C 95 % 1026,8 hPa 0,0 l/m 0 min 0 min 0 W/m 19,3 km/h (3 Bft) 97,87 %
16.01.2022 17:14 4,3 C 3,9 C 3,3 C 95 % 1026,8 hPa 0,0 l/m 0 min 0 min 0 W/m 12,9 km/h (3 Bft) 97,87 %
16.01.2022 17:12 4,3 C 3,9 C 3,3 C 95 % 1026,9 hPa 0,0 l/m 0 min 0 min 0 W/m 12,9 km/h (3 Bft) 100,00 %
16.01.2022 17:10 4,3 C 3,9 C 3,3 C 95 % 1026,9 hPa 0,0 l/m 0 min 0 min 0 W/m 12,9 km/h (3 Bft) 100,00 %
16.01.2022 17:08 4,3 C 3,9 C 3,3 C 95 % 1026,9 hPa 0,0 l/m 0 min 0 min 0 W/m 12,9 km/h (3 Bft) 100,00 %
16.01.2022 17:06 4,3 C 3,9 C 3,3 C 95 % 1026,9 hPa 0,0 l/m 0 min 0 min 0 W/m 19,3 km/h (3 Bft) 97,87 %
16.01.2022 17:04 4,3 C 3,9 C 3,3 C 95 % 1026,9 hPa 0,0 l/m 0 min 0 min 0 W/m 12,9 km/h (3 Bft) 93,62 %
16.01.2022 17:02 4,3 C 3,9 C 3,3 C 95 % 1026,9 hPa 0,0 l/m 0 min 0 min 0 W/m 12,9 km/h (3 Bft) 97,14 %
16.01.2022 17:00 4,3 C 3,9 C 3,3 C 95 % 1026,9 hPa 0,0 l/m 0 min 0 min 0 W/m 12,9 km/h (3 Bft) 95,74 %
16.01.2022 16:58 4,3 C 3,9 C 3,3 C 95 % 1026,7 hPa 0,0 l/m 0 min 0 min 0 W/m 16,1 km/h (3 Bft) 97,87 %
16.01.2022 16:56 4,3 C 3,9 C 3,3 C 95 % 1026,4 hPa 0,0 l/m 0 min 0 min 0 W/m 9,7 km/h (2 Bft) 97,87 %
16.01.2022 16:54 4,3 C 3,9 C 3,3 C 95 % 1026,4 hPa 0,0 l/m 0 min 0 min 0 W/m 12,9 km/h (3 Bft) 97,87 %
16.01.2022 16:52 4,3 C 3,9 C 3,3 C 95 % 1026,5 hPa 0,0 l/m 0 min 0 min 0 W/m 12,9 km/h (3 Bft) 97,83 %
16.01.2022 16:50 4,3 C 3,9 C 3,3 C 95 % 1026,5 hPa 0,0 l/m 0 min 0 min 0 W/m 12,9 km/h (3 Bft) 97,87 %
16.01.2022 16:48 4,3 C 3,9 C 3,3 C 95 % 1026,5 hPa 0,0 l/m 0 min 0 min 0 W/m 12,9 km/h (3 Bft) 97,87 %
16.01.2022 16:46 4,3 C 3,9 C 3,3 C 95 % 1026,5 hPa 0,0 l/m 0 min 0 min 0 W/m 16,1 km/h (3 Bft) 97,87 %
16.01.2022 16:44 4,3 C 3,9 C 3,3 C 95 % 1026,5 hPa 0,0 l/m 0 min 0 min 0 W/m 16,1 km/h (3 Bft) 93,62 %
16.01.2022 16:42 4,4 C 3,9 C 3,3 C 95 % 1026,5 hPa 0,0 l/m 0 min 0 min 0 W/m 12,9 km/h (3 Bft) 97,87 %
16.01.2022 16:40 4,4 C 3,9 C 3,3 C 95 % 1026,6 hPa 0,0 l/m 0 min 0 min 0 W/m 16,1 km/h (3 Bft) 97,83 %
16.01.2022 16:38 4,4 C 3,9 C 3,3 C 95 % 1026,6 hPa 0,0 l/m 0 min 0 min 0 W/m 22,5 km/h (4 Bft) 100,00 %
16.01.2022 16:36 4,4 C 3,9 C 3,3 C 95 % 1026,5 hPa 0,0 l/m 0 min 0 min 2 W/m 19,3 km/h (3 Bft) 100,00 %
16.01.2022 16:34 4,4 C 3,9 C 3,3 C 95 % 1026,5 hPa 0,0 l/m 0 min 0 min 5 W/m 9,7 km/h (2 Bft) 100,00 %
16.01.2022 16:32 4,4 C 3,9 C 3,3 C 95 % 1026,4 hPa 0,0 l/m 0 min 0 min 5 W/m 22,5 km/h (4 Bft) 100,00 %
16.01.2022 16:30 4,4 C 3,9 C 3,3 C 95 % 1026,5 hPa 0,0 l/m 0 min 0 min 5 W/m 16,1 km/h (3 Bft) 100,00 %
16.01.2022 16:28 4,4 C 3,9 C 3,3 C 95 % 1026,5 hPa 0,0 l/m 0 min 0 min 7 W/m 9,7 km/h (2 Bft) 95,65 %
16.01.2022 16:26 4,4 C 3,9 C 3,3 C 95 % 1026,4 hPa 0,0 l/m 0 min 0 min 8 W/m 12,9 km/h (3 Bft) 100,00 %
16.01.2022 16:24 4,4 C 3,9 C 3,3 C 95 % 1026,4 hPa 0,0 l/m 0 min 0 min 7 W/m 12,9 km/h (3 Bft) 100,00 %
16.01.2022 16:22 4,4 C 3,9 C 3,3 C 95 % 1026,5 hPa 0,0 l/m 0 min 0 min 9 W/m 12,9 km/h (3 Bft) 100,00 %
16.01.2022 16:20 4,5 C 3,9 C 3,3 C 95 % 1026,4 hPa 0,0 l/m 0 min 0 min 10 W/m 12,9 km/h (3 Bft) 97,87 %
16.01.2022 16:18 4,4 C 3,9 C 3,3 C 95 % 1026,3 hPa 0,0 l/m 0 min 0 min 12 W/m 12,9 km/h (3 Bft) 100,00 %
16.01.2022 16:16 4,5 C 3,9 C 3,3 C 95 % 1026,4 hPa 0,0 l/m 0 min 0 min 13 W/m 19,3 km/h (3 Bft) 95,65 %
16.01.2022 16:14 4,5 C 3,9 C 3,3 C 95 % 1026,4 hPa 0,0 l/m 0 min 0 min 14 W/m 12,9 km/h (3 Bft) 100,00 %
16.01.2022 16:12 4,5 C 3,9 C 3,3 C 95 % 1026,4 hPa 0,0 l/m 0 min 0 min 16 W/m 12,9 km/h (3 Bft) 100,00 %
16.01.2022 16:10 4,5 C 3,9 C 3,3 C 95 % 1026,4 hPa 0,0 l/m 0 min 0 min 16 W/m 6,4 km/h (2 Bft) 100,00 %
16.01.2022 16:08 4,5 C 3,9 C 3,3 C 95 % 1026,3 hPa 0,0 l/m 0 min 0 min 19 W/m 12,9 km/h (3 Bft) 97,87 %
16.01.2022 16:06 4,5 C 3,9 C 3,3 C 95 % 1026,3 hPa 0,0 l/m 0 min 0 min 20 W/m 16,1 km/h (3 Bft) 100,00 %
16.01.2022 16:04 4,5 C 3,9 C 3,3 C 95 % 1026,3 hPa 0,0 l/m 0 min 0 min 22 W/m 6,4 km/h (2 Bft) 100,00 %
16.01.2022 16:02 4,5 C 3,9 C 3,3 C 95 % 1026,3 hPa 0,0 l/m 0 min 0 min 21 W/m 12,9 km/h (3 Bft) 97,87 %
16.01.2022 16:00 4,5 C 3,9 C 3,3 C 95 % 1026,2 hPa 0,0 l/m 0 min 0 min 22 W/m 22,5 km/h (4 Bft) 100,00 %
16.01.2022 15:58 4,5 C 3,9 C 3,3 C 95 % 1026,3 hPa 0,0 l/m 0 min 0 min 21 W/m 12,9 km/h (3 Bft) 97,87 %
16.01.2022 15:56 4,6 C 3,9 C 3,3 C 95 % 1026,3 hPa 0,0 l/m 0 min 0 min 19 W/m 22,5 km/h (4 Bft) 97,87 %
16.01.2022 15:54 4,6 C 3,9 C 3,3 C 95 % 1026,2 hPa 0,0 l/m 0 min 0 min 21 W/m 16,1 km/h (3 Bft) 97,83 %
16.01.2022 15:52 4,6 C 3,9 C 3,3 C 95 % 1026,2 hPa 0,0 l/m 0 min 0 min 18 W/m 6,4 km/h (2 Bft) 97,87 %
16.01.2022 15:50 4,6 C 3,9 C 3,3 C 94 % 1026,3 hPa 0,0 l/m 0 min 0 min 18 W/m 16,1 km/h (3 Bft) 95,74 %
16.01.2022 15:48 4,6 C 3,9 C 3,3 C 94 % 1026,1 hPa 0,0 l/m 0 min 0 min 21 W/m 22,5 km/h (4 Bft) 97,87 %
16.01.2022 15:46 4,6 C 3,9 C 3,3 C 94 % 1026,1 hPa 0,0 l/m 0 min 0 min 23 W/m 16,1 km/h (3 Bft) 100,00 %
16.01.2022 15:44 4,6 C 3,9 C 3,3 C 94 % 1026,0 hPa 0,0 l/m 0 min 0 min 24 W/m 9,7 km/h (2 Bft) 97,87 %
16.01.2022 15:42 4,6 C 3,9 C 3,3 C 94 % 1026,0 hPa 0,0 l/m 0 min 0 min 21 W/m 16,1 km/h (3 Bft) 95,65 %
16.01.2022 15:40 4,6 C 3,9 C 3,3 C 94 % 1026,0 hPa 0,0 l/m 0 min 0 min 23 W/m 16,1 km/h (3 Bft) 97,87 %
16.01.2022 15:38 4,6 C 3,9 C 3,3 C 94 % 1025,9 hPa 0,0 l/m 0 min 0 min 23 W/m 16,1 km/h (3 Bft) 97,87 %
16.01.2022 15:36 4,6 C 3,9 C 3,3 C 94 % 1025,9 hPa 0,0 l/m 0 min 0 min 23 W/m 12,9 km/h (3 Bft) 97,87 %
16.01.2022 15:34 4,6 C 3,9 C 3,3 C 94 % 1026,0 hPa 0,0 l/m 0 min 0 min 22 W/m 16,1 km/h (3 Bft) 97,87 %
16.01.2022 15:32 4,6 C 3,9 C 3,3 C 94 % 1025,9 hPa 0,0 l/m 0 min 0 min 24 W/m 12,9 km/h (3 Bft) 95,74 %
16.01.2022 15:30 4,6 C 3,9 C 3,9 C 94 % 1025,9 hPa 0,0 l/m 0 min 0 min 25 W/m 16,1 km/h (3 Bft) 97,83 %
16.01.2022 15:28 4,6 C 3,9 C 3,9 C 94 % 1025,9 hPa 0,0 l/m 0 min 0 min 24 W/m 16,1 km/h (3 Bft) 97,87 %
16.01.2022 15:26 4,6 C 3,9 C 3,9 C 94 % 1025,8 hPa 0,0 l/m 0 min 0 min 27 W/m 12,9 km/h (3 Bft) 93,62 %
16.01.2022 15:24 4,6 C 3,9 C 3,3 C 94 % 1025,8 hPa 0,0 l/m 0 min 0 min 26 W/m 12,9 km/h (3 Bft) 97,87 %
16.01.2022 15:22 4,6 C 3,9 C 3,9 C 94 % 1025,8 hPa 0,0 l/m 0 min 0 min 23 W/m 19,3 km/h (3 Bft) 95,74 %
16.01.2022 15:20 4,7 C 4,4 C 3,9 C 94 % 1025,9 hPa 0,0 l/m 0 min 0 min 26 W/m 16,1 km/h (3 Bft) 97,87 %
16.01.2022 15:18 4,7 C 4,4 C 3,9 C 94 % 1025,8 hPa 0,0 l/m 0 min 0 min 24 W/m 6,4 km/h (2 Bft) 93,48 %
16.01.2022 15:16 4,7 C 4,4 C 3,9 C 94 % 1025,8 hPa 0,0 l/m 0 min 0 min 22 W/m 12,9 km/h (3 Bft) 93,62 %
16.01.2022 15:14 4,7 C 4,4 C 3,9 C 94 % 1025,9 hPa 0,0 l/m 0 min 0 min 21 W/m 12,9 km/h (3 Bft) 93,62 %
16.01.2022 15:12 4,7 C 4,4 C 3,9 C 94 % 1025,9 hPa 0,0 l/m 0 min 0 min 21 W/m 19,3 km/h (3 Bft) 95,74 %
16.01.2022 15:10 4,7 C 4,4 C 3,9 C 94 % 1025,9 hPa 0,0 l/m 0 min 0 min 25 W/m 16,1 km/h (3 Bft) 95,74 %
16.01.2022 15:08 4,7 C 4,4 C 3,9 C 94 % 1025,8 hPa 0,0 l/m 0 min 0 min 22 W/m 19,3 km/h (3 Bft) 97,83 %
16.01.2022 15:06 4,7 C 4,4 C 3,9 C 94 % 1025,8 hPa 0,0 l/m 0 min 0 min 23 W/m 16,1 km/h (3 Bft) 97,87 %
16.01.2022 15:04 4,7 C 4,4 C 3,9 C 94 % 1025,7 hPa 0,0 l/m 0 min 0 min 26 W/m 16,1 km/h (3 Bft) 93,62 %
16.01.2022 15:02 4,7 C 4,4 C 3,9 C 94 % 1025,9 hPa 0,0 l/m 0 min 0 min 26 W/m 12,9 km/h (3 Bft) 95,83 %
16.01.2022 15:00 4,7 C 4,4 C 3,9 C 94 % 1025,7 hPa 0,0 l/m 0 min 0 min 30 W/m 12,9 km/h (3 Bft) 95,74 %
16.01.2022 14:58 4,7 C 4,4 C 3,9 C 94 % 1025,7 hPa 0,0 l/m 0 min 0 min 30 W/m 16,1 km/h (3 Bft) 95,74 %
16.01.2022 14:56 4,7 C 4,4 C 3,9 C 94 % 1025,8 hPa 0,0 l/m 0 min 0 min 30 W/m 12,9 km/h (3 Bft) 95,74 %
16.01.2022 14:54 4,7 C 4,4 C 3,9 C 94 % 1025,8 hPa 0,0 l/m 0 min 0 min 29 W/m 12,9 km/h (3 Bft) 97,83 %
16.01.2022 14:52 4,8 C 4,4 C 3,9 C 94 % 1025,8 hPa 0,0 l/m 0 min 0 min 32 W/m 19,3 km/h (3 Bft) 93,62 %
16.01.2022 14:50 4,7 C 4,4 C 3,9 C 93 % 1025,8 hPa 0,0 l/m 0 min 0 min 37 W/m 16,1 km/h (3 Bft) 95,74 %
16.01.2022 14:48 4,7 C 4,4 C 3,9 C 93 % 1025,8 hPa 0,0 l/m 0 min 0 min 47 W/m 6,4 km/h (2 Bft) 95,74 %
16.01.2022 14:46 4,7 C 4,4 C 3,9 C 93 % 1025,7 hPa 0,0 l/m 0 min 0 min 47 W/m 16,1 km/h (3 Bft) 93,62 %
16.01.2022 14:44 4,7 C 4,4 C 3,9 C 93 % 1025,7 hPa 0,0 l/m 0 min 0 min 50 W/m 25,7 km/h (4 Bft) 95,74 %
16.01.2022 14:42 4,8 C 4,4 C 3,9 C 94 % 1025,7 hPa 0,0 l/m 0 min 0 min 44 W/m 19,3 km/h (3 Bft) 95,65 %
16.01.2022 14:40 4,8 C 4,4 C 3,9 C 93 % 1025,7 hPa 0,0 l/m 0 min 0 min 46 W/m 19,3 km/h (3 Bft) 95,74 %
16.01.2022 14:38 4,8 C 4,4 C 3,9 C 93 % 1025,6 hPa 0,0 l/m 0 min 0 min 48 W/m 12,9 km/h (3 Bft) 95,74 %
16.01.2022 14:36 4,8 C 4,4 C 3,9 C 93 % 1025,6 hPa 0,0 l/m 0 min 0 min 44 W/m 22,5 km/h (4 Bft) 95,74 %
16.01.2022 14:34 4,8 C 4,4 C 3,9 C 93 % 1025,6 hPa 0,0 l/m 0 min 0 min 51 W/m 6,4 km/h (2 Bft) 95,74 %
16.01.2022 14:32 4,8 C 4,4 C 3,9 C 93 % 1025,6 hPa 0,0 l/m 0 min 0 min 56 W/m 12,9 km/h (3 Bft) 93,62 %
16.01.2022 14:30 4,8 C 4,4 C 3,9 C 93 % 1025,6 hPa 0,0 l/m 0 min 0 min 59 W/m 19,3 km/h (3 Bft) 100,00 %
16.01.2022 14:28 4,8 C 4,4 C 3,9 C 93 % 1025,6 hPa 0,0 l/m 0 min 0 min 57 W/m 19,3 km/h (3 Bft) 97,87 %
16.01.2022 14:26 4,8 C 4,4 C 3,9 C 93 % 1025,6 hPa 0,0 l/m 0 min 0 min 64 W/m 16,1 km/h (3 Bft) 97,87 %
16.01.2022 14:24 4,7 C 4,4 C 3,9 C 93 % 1025,5 hPa 0,0 l/m 0 min 0 min 64 W/m 6,4 km/h (2 Bft) 100,00 %
16.01.2022 14:22 4,7 C 4,4 C 3,9 C 93 % 1025,6 hPa 0,0 l/m 0 min 0 min 66 W/m 6,4 km/h (2 Bft) 100,00 %
16.01.2022 14:20 4,7 C 4,4 C 3,9 C 93 % 1025,6 hPa 0,0 l/m 0 min 0 min 67 W/m 12,9 km/h (3 Bft) 100,00 %
16.01.2022 14:18 4,7 C 4,4 C 3,9 C 93 % 1025,7 hPa 0,0 l/m 0 min 0 min 64 W/m 16,1 km/h (3 Bft) 97,87 %
16.01.2022 14:16 4,7 C 4,4 C 3,9 C 93 % 1025,7 hPa 0,0 l/m 0 min 0 min 69 W/m 19,3 km/h (3 Bft) 100,00 %
16.01.2022 14:14 4,7 C 4,4 C 3,9 C 93 % 1025,6 hPa 0,0 l/m 0 min 0 min 67 W/m 16,1 km/h (3 Bft) 100,00 %
16.01.2022 14:12 4,7 C 4,4 C 4,4 C 93 % 1025,7 hPa 0,0 l/m 0 min 0 min 83 W/m 12,9 km/h (3 Bft) 97,87 %
16.01.2022 14:10 4,7 C 4,4 C 3,9 C 93 % 1025,6 hPa 0,0 l/m 0 min 0 min 91 W/m 22,5 km/h (4 Bft) 100,00 %
16.01.2022 14:08 4,7 C 4,4 C 4,4 C 93 % 1025,6 hPa 0,0 l/m 0 min 0 min 92 W/m 19,3 km/h (3 Bft) 100,00 %
16.01.2022 14:06 4,7 C 4,4 C 4,4 C 93 % 1025,6 hPa 0,0 l/m 0 min 0 min 96 W/m 22,5 km/h (4 Bft) 100,00 %
16.01.2022 14:04 4,7 C 4,4 C 4,4 C 93 % 1025,6 hPa 0,0 l/m 0 min 0 min 99 W/m 19,3 km/h (3 Bft) 100,00 %
16.01.2022 14:02 4,8 C 4,4 C 4,4 C 93 % 1025,5 hPa 0,0 l/m 0 min 0 min 103 W/m 19,3 km/h (3 Bft) 95,74 %
16.01.2022 14:00 4,7 C 4,4 C 4,4 C 93 % 1025,6 hPa 0,0 l/m 0 min 0 min 100 W/m 16,1 km/h (3 Bft) 100,00 %
16.01.2022 13:58 4,8 C 4,4 C 4,4 C 93 % 1025,6 hPa 0,0 l/m 0 min 0 min 100 W/m 32,2 km/h (5 Bft) 97,87 %
16.01.2022 13:56 4,8 C 5,0 C 4,4 C 93 % 1025,6 hPa 0,0 l/m 0 min 0 min 108 W/m 12,9 km/h (3 Bft) 100,00 %
16.01.2022 13:54 4,8 C 5,0 C 4,4 C 93 % 1025,6 hPa 0,0 l/m 0 min 0 min 95 W/m 12,9 km/h (3 Bft) 100,00 %
16.01.2022 13:52 4,8 C 5,0 C 4,4 C 93 % 1025,7 hPa 0,0 l/m 0 min 0 min 87 W/m 19,3 km/h (3 Bft) 100,00 %
16.01.2022 13:50 4,8 C 5,0 C 4,4 C 93 % 1025,6 hPa 0,0 l/m 0 min 0 min 92 W/m 12,9 km/h (3 Bft) 100,00 %
16.01.2022 13:48 4,8 C 5,0 C 4,4 C 93 % 1025,7 hPa 0,0 l/m 0 min 0 min 120 W/m 16,1 km/h (3 Bft) 100,00 %
16.01.2022 13:46 4,8 C 5,0 C 4,4 C 93 % 1025,7 hPa 0,0 l/m 0 min 0 min 153 W/m 16,1 km/h (3 Bft) 100,00 %
16.01.2022 13:44 4,7 C 5,0 C 4,4 C 93 % 1025,8 hPa 0,0 l/m 0 min 0 min 143 W/m 19,3 km/h (3 Bft) 100,00 %
16.01.2022 13:42 4,8 C 5,0 C 4,4 C 94 % 1025,8 hPa 0,0 l/m 0 min 0 min 138 W/m 19,3 km/h (3 Bft) 97,87 %
16.01.2022 13:40 4,8 C 5,6 C 4,4 C 94 % 1025,8 hPa 0,0 l/m 0 min 0 min 145 W/m 22,5 km/h (4 Bft) 100,00 %
16.01.2022 13:38 4,8 C 6,1 C 4,4 C 94 % 1025,7 hPa 0,0 l/m 2 min 0 min 212 W/m 12,9 km/h (3 Bft) 100,00 %
16.01.2022 13:36 4,8 C 6,1 C 4,4 C 94 % 1025,6 hPa 0,0 l/m 2 min 0 min 166 W/m 12,9 km/h (3 Bft) 100,00 %
16.01.2022 13:34 4,7 C 6,1 C 4,4 C 94 % 1025,6 hPa 0,0 l/m 0 min 0 min 146 W/m 16,1 km/h (3 Bft) 97,87 %
16.01.2022 13:32 4,7 C 6,1 C 4,4 C 94 % 1025,6 hPa 0,0 l/m 0 min 0 min 114 W/m 16,1 km/h (3 Bft) 100,00 %
16.01.2022 13:30 4,8 C 6,1 C 4,4 C 94 % 1025,7 hPa 0,0 l/m 0 min 0 min 121 W/m 9,7 km/h (2 Bft) 100,00 %
16.01.2022 13:28 4,7 C 6,7 C 4,4 C 95 % 1025,7 hPa 0,0 l/m 0 min 0 min 135 W/m 16,1 km/h (3 Bft) 97,87 %
16.01.2022 13:26 4,7 C 7,2 C 4,4 C 95 % 1025,7 hPa 0,0 l/m 2 min 0 min 236 W/m 12,9 km/h (3 Bft) 97,87 %
16.01.2022 13:24 4,6 C 7,2 C 4,4 C 94 % 1025,7 hPa 0,0 l/m 0 min 0 min 157 W/m 12,9 km/h (3 Bft) 100,00 %
16.01.2022 13:22 4,6 C 5,6 C 4,4 C 94 % 1025,7 hPa 0,0 l/m 0 min 0 min 160 W/m 16,1 km/h (3 Bft) 100,00 %
16.01.2022 13:20 4,5 C 5,0 C 4,4 C 94 % 1025,7 hPa 0,0 l/m 2 min 0 min 185 W/m 16,1 km/h (3 Bft) 100,00 %
16.01.2022 13:18 4,5 C 4,4 C 3,9 C 94 % 1025,7 hPa 0,0 l/m 0 min 0 min 120 W/m 16,1 km/h (3 Bft) 100,00 %
16.01.2022 13:16 4,5 C 4,4 C 3,9 C 94 % 1025,7 hPa 0,0 l/m 0 min 0 min 93 W/m 22,5 km/h (4 Bft) 97,87 %
16.01.2022 13:14 4,5 C 4,4 C 3,9 C 94 % 1025,6 hPa 0,0 l/m 0 min 0 min 107 W/m 16,1 km/h (3 Bft) 97,87 %
16.01.2022 13:12 4,4 C 4,4 C 3,9 C 95 % 1025,7 hPa 0,0 l/m 0 min 0 min 123 W/m 16,1 km/h (3 Bft) 97,87 %
16.01.2022 13:10 4,4 C 4,4 C 3,9 C 95 % 1025,7 hPa 0,0 l/m 0 min 0 min 144 W/m 12,9 km/h (3 Bft) 97,83 %
16.01.2022 13:08 4,4 C 4,4 C 3,9 C 95 % 1025,7 hPa 0,0 l/m 0 min 0 min 109 W/m 12,9 km/h (3 Bft) 97,87 %
16.01.2022 13:06 4,4 C 4,4 C 3,9 C 95 % 1025,7 hPa 0,0 l/m 0 min 0 min 76 W/m 12,9 km/h (3 Bft) 95,74 %
16.01.2022 13:04 4,4 C 4,4 C 3,9 C 95 % 1025,7 hPa 0,0 l/m 0 min 0 min 93 W/m 16,1 km/h (3 Bft) 97,87 %
16.01.2022 13:02 4,4 C 4,4 C 3,9 C 95 % 1025,6 hPa 0,0 l/m 0 min 0 min 115 W/m 22,5 km/h (4 Bft) 95,74 %
16.01.2022 13:00 4,5 C 4,4 C 3,9 C 95 % 1025,6 hPa 0,0 l/m 0 min 0 min 83 W/m 22,5 km/h (4 Bft) 97,87 %
16.01.2022 12:58 4,5 C 4,4 C 3,9 C 95 % 1025,6 hPa 0,0 l/m 0 min 0 min 92 W/m 29,0 km/h (5 Bft) 95,65 %
16.01.2022 12:56 4,5 C 4,4 C 4,4 C 95 % 1025,6 hPa 0,0 l/m 0 min 0 min 95 W/m 12,9 km/h (3 Bft) 93,88 %
16.01.2022 12:54 4,6 C 4,4 C 4,4 C 95 % 1025,6 hPa 0,0 l/m 0 min 0 min 89 W/m 19,3 km/h (3 Bft) 93,62 %
16.01.2022 12:52 4,6 C 5,0 C 4,4 C 95 % 1025,6 hPa 0,0 l/m 0 min 0 min 109 W/m 19,3 km/h (3 Bft) 93,62 %
16.01.2022 12:50 4,6 C 5,0 C 4,4 C 95 % 1025,6 hPa 0,0 l/m 0 min 0 min 126 W/m 19,3 km/h (3 Bft) 95,74 %
16.01.2022 12:48 4,5 C 5,0 C 4,4 C 95 % 1025,6 hPa 0,0 l/m 0 min 0 min 170 W/m 16,1 km/h (3 Bft) 95,65 %
16.01.2022 12:46 4,5 C 4,4 C 4,4 C 95 % 1025,6 hPa 0,0 l/m 0 min 0 min 110 W/m 19,3 km/h (3 Bft) 95,74 %
16.01.2022 12:44 4,4 C 4,4 C 3,9 C 95 % 1025,6 hPa 0,0 l/m 0 min 0 min 114 W/m 22,5 km/h (4 Bft) 95,74 %
16.01.2022 12:42 4,4 C 4,4 C 3,9 C 95 % 1025,6 hPa 0,0 l/m 0 min 0 min 96 W/m 16,1 km/h (3 Bft) 97,87 %
16.01.2022 12:40 4,4 C 4,4 C 3,9 C 95 % 1025,6 hPa 0,0 l/m 0 min 0 min 94 W/m 16,1 km/h (3 Bft) 89,36 %
16.01.2022 12:38 4,4 C 4,4 C 3,9 C 95 % 1025,6 hPa 0,0 l/m 0 min 0 min 91 W/m 29,0 km/h (5 Bft) 95,74 %
16.01.2022 12:36 4,4 C 4,4 C 3,9 C 95 % 1025,6 hPa 0,0 l/m 0 min 0 min 94 W/m 22,5 km/h (4 Bft) 95,65 %
16.01.2022 12:34 4,4 C 4,4 C 3,9 C 95 % 1025,6 hPa 0,0 l/m 0 min 0 min 106 W/m 29,0 km/h (5 Bft) 93,62 %
16.01.2022 12:32 4,4 C 4,4 C 3,9 C 95 % 1025,6 hPa 0,0 l/m 0 min 0 min 85 W/m 22,5 km/h (4 Bft) 95,74 %
16.01.2022 12:30 4,4 C 4,4 C 3,9 C 95 % 1025,7 hPa 0,0 l/m 0 min 0 min 92 W/m 19,3 km/h (3 Bft) 95,74 %
16.01.2022 12:28 4,4 C 4,4 C 3,9 C 95 % 1025,7 hPa 0,0 l/m 0 min 0 min 88 W/m 16,1 km/h (3 Bft) 95,74 %
16.01.2022 12:26 4,4 C 4,4 C 3,9 C 95 % 1025,7 hPa 0,0 l/m 0 min 0 min 87 W/m 12,9 km/h (3 Bft) 93,48 %
16.01.2022 12:24 4,4 C 4,4 C 3,9 C 95 % 1025,7 hPa 0,0 l/m 0 min 0 min 84 W/m 19,3 km/h (3 Bft) 100,00 %
16.01.2022 12:22 4,3 C 3,9 C 3,9 C 96 % 1025,7 hPa 0,0 l/m 0 min 0 min 78 W/m 19,3 km/h (3 Bft) 100,00 %
16.01.2022 12:20 4,3 C 3,9 C 3,9 C 96 % 1025,8 hPa 0,0 l/m 0 min 0 min 66 W/m 22,5 km/h (4 Bft) 95,74 %
16.01.2022 12:18 4,3 C 3,9 C 3,9 C 96 % 1025,7 hPa 0,0 l/m 0 min 0 min 58 W/m 16,1 km/h (3 Bft) 95,74 %
16.01.2022 12:16 4,3 C 3,9 C 3,9 C 96 % 1025,7 hPa 0,0 l/m 0 min 0 min 64 W/m 16,1 km/h (3 Bft) 95,65 %
16.01.2022 12:14 4,3 C 3,9 C 3,9 C 96 % 1025,7 hPa 0,0 l/m 0 min 0 min 51 W/m 19,3 km/h (3 Bft) 97,87 %
16.01.2022 12:12 4,3 C 3,9 C 3,9 C 96 % 1025,7 hPa 0,0 l/m 0 min 0 min 58 W/m 12,9 km/h (3 Bft) 97,87 %
16.01.2022 12:10 4,3 C 3,9 C 3,9 C 96 % 1025,6 hPa 0,0 l/m 0 min 0 min 66 W/m 9,7 km/h (2 Bft) 97,87 %
16.01.2022 12:08 4,3 C 3,9 C 3,9 C 95 % 1025,6 hPa 0,0 l/m 0 min 0 min 66 W/m 9,7 km/h (2 Bft) 95,74 %
16.01.2022 12:06 4,3 C 3,9 C 3,9 C 95 % 1025,6 hPa 0,0 l/m 0 min 0 min 57 W/m 22,5 km/h (4 Bft) 97,87 %
16.01.2022 12:04 4,3 C 3,9 C 3,9 C 95 % 1025,5 hPa 0,0 l/m 0 min 0 min 56 W/m 19,3 km/h (3 Bft) 100,00 %
16.01.2022 12:02 4,2 C 3,9 C 3,9 C 96 % 1025,5 hPa 0,0 l/m 0 min 0 min 52 W/m 16,1 km/h (3 Bft) 97,87 %
16.01.2022 12:00 4,2 C 3,9 C 3,9 C 96 % 1025,5 hPa 0,0 l/m 0 min 0 min 52 W/m 9,7 km/h (2 Bft) 97,87 %
16.01.2022 11:58 4,2 C 3,9 C 3,9 C 96 % 1025,4 hPa 0,0 l/m 0 min 0 min 50 W/m 16,1 km/h (3 Bft) 95,74 %
16.01.2022 11:56 4,2 C 3,9 C 3,9 C 96 % 1025,4 hPa 0,0 l/m 0 min 0 min 53 W/m 12,9 km/h (3 Bft) 95,74 %
16.01.2022 11:54 4,2 C 3,9 C 3,9 C 96 % 1025,4 hPa 0,0 l/m 0 min 0 min 54 W/m 9,7 km/h (2 Bft) 97,87 %
16.01.2022 11:52 4,1 C 3,9 C 3,9 C 96 % 1025,4 hPa 0,0 l/m 0 min 0 min 57 W/m 16,1 km/h (3 Bft) 95,65 %
16.01.2022 11:50 4,1 C 3,9 C 3,9 C 96 % 1025,4 hPa 0,0 l/m 0 min 0 min 53 W/m 19,3 km/h (3 Bft) 97,87 %
16.01.2022 11:48 4,1 C 3,9 C 3,9 C 96 % 1025,4 hPa 0,0 l/m 0 min 0 min 49 W/m 25,7 km/h (4 Bft) 95,74 %
16.01.2022 11:46 4,1 C 3,9 C 3,3 C 96 % 1025,4 hPa 0,0 l/m 0 min 0 min 48 W/m 12,9 km/h (3 Bft) 97,87 %
16.01.2022 11:44 4,1 C 3,9 C 3,9 C 96 % 1025,4 hPa 0,0 l/m 0 min 0 min 42 W/m 22,5 km/h (4 Bft) 97,87 %
16.01.2022 11:42 4,1 C 3,9 C 3,3 C 96 % 1025,4 hPa 0,0 l/m 0 min 0 min 43 W/m 12,9 km/h (3 Bft) 97,87 %
16.01.2022 11:40 4,1 C 3,9 C 3,3 C 96 % 1025,4 hPa 0,0 l/m 0 min 0 min 43 W/m 12,9 km/h (3 Bft) 97,83 %
16.01.2022 11:38 4,1 C 3,9 C 3,3 C 96 % 1025,4 hPa 0,0 l/m 0 min 0 min 43 W/m 16,1 km/h (3 Bft) 97,87 %
16.01.2022 11:36 4,1 C 3,9 C 3,3 C 96 % 1025,4 hPa 0,0 l/m 0 min 0 min 43 W/m 16,1 km/h (3 Bft) 95,74 %
16.01.2022 11:34 4,1 C 3,9 C 3,3 C 96 % 1025,4 hPa 0,0 l/m 0 min 0 min 49 W/m 12,9 km/h (3 Bft) 97,87 %
16.01.2022 11:32 4,0 C 3,9 C 3,3 C 96 % 1025,4 hPa 0,0 l/m 0 min 0 min 49 W/m 16,1 km/h (3 Bft) 97,92 %
16.01.2022 11:30 4,0 C 3,9 C 3,3 C 96 % 1025,3 hPa 0,0 l/m 0 min 0 min 47 W/m 16,1 km/h (3 Bft) 100,00 %
16.01.2022 11:28 4,0 C 3,9 C 3,3 C 96 % 1025,3 hPa 0,0 l/m 0 min 0 min 46 W/m 25,7 km/h (4 Bft) 97,87 %
16.01.2022 11:26 4,0 C 3,9 C 3,3 C 96 % 1025,3 hPa 0,0 l/m 0 min 0 min 44 W/m 6,4 km/h (2 Bft) 100,00 %
16.01.2022 11:24 3,9 C 3,9 C 3,3 C 96 % 1025,3 hPa 0,0 l/m 0 min 0 min 44 W/m 19,3 km/h (3 Bft) 100,00 %
16.01.2022 11:22 3,9 C 3,9 C 3,3 C 96 % 1025,3 hPa 0,0 l/m 0 min 0 min 44 W/m 12,9 km/h (3 Bft) 97,87 %
16.01.2022 11:20 3,9 C 3,9 C 3,3 C 96 % 1025,3 hPa 0,0 l/m 0 min 0 min 46 W/m 12,9 km/h (3 Bft) 100,00 %
16.01.2022 11:18 3,9 C 3,9 C 3,3 C 96 % 1025,3 hPa 0,0 l/m 0 min 0 min 49 W/m 12,9 km/h (3 Bft) 100,00 %
16.01.2022 11:16 3,9 C 3,9 C 3,3 C 96 % 1025,3 hPa 0,0 l/m 0 min 0 min 46 W/m 16,1 km/h (3 Bft) 97,87 %
16.01.2022 11:14 3,9 C 3,9 C 3,3 C 96 % 1025,3 hPa 0,0 l/m 0 min 0 min 43 W/m 19,3 km/h (3 Bft) 97,83 %
16.01.2022 11:12 3,9 C 3,9 C 3,3 C 96 % 1025,3 hPa 0,0 l/m 0 min 0 min 40 W/m 6,4 km/h (2 Bft) 100,00 %
16.01.2022 11:10 3,8 C 3,3 C 3,3 C 96 % 1025,3 hPa 0,0 l/m 0 min 0 min 40 W/m 12,9 km/h (3 Bft) 100,00 %
16.01.2022 11:08 3,8 C 3,3 C 3,3 C 96 % 1025,2 hPa 0,0 l/m 0 min 0 min 41 W/m 12,9 km/h (3 Bft) 100,00 %
16.01.2022 11:06 3,8 C 3,3 C 3,3 C 96 % 1025,2 hPa 0,0 l/m 0 min 0 min 40 W/m 12,9 km/h (3 Bft) 100,00 %
16.01.2022 11:04 3,8 C 3,3 C 3,3 C 96 % 1025,2 hPa 0,0 l/m 0 min 0 min 36 W/m 12,9 km/h (3 Bft) 100,00 %
16.01.2022 11:02 3,8 C 3,3 C 3,3 C 96 % 1025,2 hPa 0,0 l/m 0 min 0 min 34 W/m 12,9 km/h (3 Bft) 100,00 %
16.01.2022 11:00 3,8 C 3,3 C 3,3 C 96 % 1025,2 hPa 0,0 l/m 0 min 0 min 32 W/m 12,9 km/h (3 Bft) 100,00 %
16.01.2022 10:58 3,8 C 3,3 C 3,3 C 96 % 1025,1 hPa 0,0 l/m 0 min 0 min 30 W/m 6,4 km/h (2 Bft) 100,00 %
16.01.2022 10:56 3,7 C 3,3 C 3,3 C 96 % 1025,0 hPa 0,0 l/m 0 min 0 min 30 W/m 16,1 km/h (3 Bft) 100,00 %
16.01.2022 10:54 3,7 C 3,3 C 3,3 C 96 % 1025,0 hPa 0,0 l/m 0 min 0 min 32 W/m 12,9 km/h (3 Bft) 97,87 %
16.01.2022 10:52 3,7 C 3,3 C 3,3 C 96 % 1025,0 hPa 0,0 l/m 0 min 0 min 32 W/m 12,9 km/h (3 Bft) 97,87 %
16.01.2022 10:50 3,7 C 3,3 C 3,3 C 96 % 1025,1 hPa 0,0 l/m 0 min 0 min 32 W/m 16,1 km/h (3 Bft) 97,83 %
16.01.2022 10:48 3,7 C 3,3 C 3,3 C 96 % 1025,1 hPa 0,0 l/m 0 min 0 min 32 W/m 12,9 km/h (3 Bft) 97,87 %
16.01.2022 10:46 3,7 C 3,3 C 3,3 C 97 % 1025,1 hPa 0,0 l/m 0 min 0 min 33 W/m 16,1 km/h (3 Bft) 97,87 %
16.01.2022 10:44 3,6 C 3,3 C 3,3 C 97 % 1025,0 hPa 0,0 l/m 0 min 0 min 34 W/m 9,7 km/h (2 Bft) 97,87 %
16.01.2022 10:42 3,6 C 3,3 C 3,3 C 97 % 1025,0 hPa 0,0 l/m 0 min 0 min 39 W/m 16,1 km/h (3 Bft) 97,87 %
16.01.2022 10:40 3,6 C 3,3 C 3,3 C 97 % 1025,1 hPa 0,0 l/m 0 min 0 min 44 W/m 12,9 km/h (3 Bft) 95,74 %
16.01.2022 10:38 3,6 C 3,3 C 3,3 C 97 % 1025,0 hPa 0,0 l/m 0 min 0 min 48 W/m 22,5 km/h (4 Bft) 97,83 %
16.01.2022 10:36 3,6 C 3,3 C 3,3 C 97 % 1025,0 hPa 0,0 l/m 0 min 0 min 48 W/m 16,1 km/h (3 Bft) 93,62 %
16.01.2022 10:34 3,6 C 3,3 C 3,3 C 97 % 1024,9 hPa 0,0 l/m 0 min 0 min 46 W/m 12,9 km/h (3 Bft) 97,87 %
16.01.2022 10:32 3,6 C 3,3 C 3,3 C 97 % 1024,9 hPa 0,0 l/m 0 min 0 min 44 W/m 9,7 km/h (2 Bft) 97,87 %
16.01.2022 10:30 3,5 C 3,3 C 3,3 C 97 % 1024,9 hPa 0,0 l/m 0 min 0 min 42 W/m 9,7 km/h (2 Bft) 97,87 %
16.01.2022 10:28 3,5 C 3,3 C 3,3 C 97 % 1024,9 hPa 0,0 l/m 0 min 0 min 42 W/m 12,9 km/h (3 Bft) 97,83 %
16.01.2022 10:26 3,5 C 3,3 C 3,3 C 97 % 1024,8 hPa 0,0 l/m 0 min 0 min 43 W/m 16,1 km/h (3 Bft) 95,74 %
16.01.2022 10:24 3,4 C 3,3 C 3,3 C 97 % 1024,8 hPa 0,0 l/m 0 min 0 min 46 W/m 16,1 km/h (3 Bft) 97,87 %
16.01.2022 10:22 3,4 C 3,3 C 3,3 C 97 % 1024,8 hPa 0,0 l/m 0 min 0 min 44 W/m 9,7 km/h (2 Bft) 95,74 %
16.01.2022 10:20 3,4 C 3,3 C 3,3 C 97 % 1024,8 hPa 0,0 l/m 0 min 0 min 37 W/m 12,9 km/h (3 Bft) 97,87 %
16.01.2022 10:18 3,4 C 3,3 C 3,3 C 97 % 1024,7 hPa 0,0 l/m 0 min 0 min 34 W/m 12,9 km/h (3 Bft) 95,74 %
16.01.2022 10:16 3,4 C 3,3 C 3,3 C 97 % 1024,7 hPa 0,0 l/m 0 min 0 min 33 W/m 12,9 km/h (3 Bft) 97,83 %
16.01.2022 10:14 3,4 C 3,3 C 3,3 C 97 % 1024,7 hPa 0,0 l/m 0 min 0 min 30 W/m 12,9 km/h (3 Bft) 95,74 %
16.01.2022 10:12 3,3 C 3,3 C 3,3 C 97 % 1024,7 hPa 0,0 l/m 0 min 0 min 31 W/m 6,4 km/h (2 Bft) 90,32 %
16.01.2022 10:10 3,3 C 3,3 C 3,3 C 97 % 1024,7 hPa 0,0 l/m 0 min 0 min 32 W/m 9,7 km/h (2 Bft) 61,70 %
16.01.2022 10:08 3,3 C 3,3 C 3,3 C 97 % 1024,7 hPa 0,0 l/m 0 min 0 min 32 W/m 12,9 km/h (3 Bft) 93,62 %
16.01.2022 10:06 3,3 C 2,8 C 3,3 C 97 % 1024,6 hPa 0,0 l/m 0 min 0 min 32 W/m 12,9 km/h (3 Bft) 97,87 %
16.01.2022 10:04 3,3 C 2,8 C 2,8 C 97 % 1024,6 hPa 0,0 l/m 0 min 0 min 26 W/m 12,9 km/h (3 Bft) 95,65 %
16.01.2022 10:02 3,3 C 2,8 C 2,8 C 97 % 1024,6 hPa 0,0 l/m 0 min 0 min 20 W/m 6,4 km/h (2 Bft) 95,74 %
16.01.2022 10:00 3,3 C 2,8 C 2,8 C 97 % 1024,7 hPa 0,0 l/m 0 min 0 min 14 W/m 6,4 km/h (2 Bft) 97,87 %
16.01.2022 09:58 3,3 C 2,8 C 2,8 C 97 % 1024,7 hPa 0,0 l/m 0 min 0 min 10 W/m 6,4 km/h (2 Bft) 97,87 %
16.01.2022 09:56 3,3 C 2,8 C 2,8 C 98 % 1024,7 hPa 0,0 l/m 0 min 0 min 9 W/m 6,4 km/h (2 Bft) 97,87 %
16.01.2022 09:54 3,3 C 2,8 C 2,8 C 98 % 1024,6 hPa 0,0 l/m 0 min 0 min 9 W/m 12,9 km/h (3 Bft) 97,87 %
16.01.2022 09:52 3,3 C 2,8 C 2,8 C 98 % 1024,6 hPa 0,0 l/m 0 min 0 min 9 W/m 6,4 km/h (2 Bft) 97,83 %
16.01.2022 09:50 3,3 C 2,8 C 2,8 C 98 % 1024,5 hPa 0,0 l/m 0 min 0 min 9 W/m 6,4 km/h (2 Bft) 97,87 %
16.01.2022 09:48 3,2 C 2,8 C 2,8 C 98 % 1024,6 hPa 0,0 l/m 0 min 0 min 10 W/m 6,4 km/h (2 Bft) 93,62 %
16.01.2022 09:46 3,2 C 2,8 C 2,8 C 98 % 1024,5 hPa 0,0 l/m 0 min 0 min 11 W/m 16,1 km/h (3 Bft) 98,00 %
16.01.2022 09:44 3,2 C 2,8 C 2,8 C 98 % 1024,5 hPa 0,0 l/m 0 min 0 min 11 W/m 16,1 km/h (3 Bft) 97,87 %
16.01.2022 09:42 3,2 C 2,8 C 2,8 C 98 % 1024,5 hPa 0,0 l/m 0 min 0 min 10 W/m 12,9 km/h (3 Bft) 97,83 %
16.01.2022 09:40 3,2 C 2,8 C 2,8 C 98 % 1024,4 hPa 0,0 l/m 0 min 0 min 9 W/m 12,9 km/h (3 Bft) 100,00 %
16.01.2022 09:38 3,2 C 2,8 C 2,8 C 98 % 1024,4 hPa 0,0 l/m 0 min 0 min 9 W/m 6,4 km/h (2 Bft) 97,67 %
16.01.2022 09:36 3,2 C 2,8 C 2,8 C 98 % 1024,3 hPa 0,0 l/m 0 min 0 min 9 W/m 6,4 km/h (2 Bft) 95,74 %
16.01.2022 09:34 3,2 C 2,8 C 2,8 C 98 % 1024,3 hPa 0,0 l/m 0 min 0 min 9 W/m 6,4 km/h (2 Bft) 97,87 %
16.01.2022 09:32 3,2 C 2,8 C 2,8 C 98 % 1024,3 hPa 0,0 l/m 0 min 0 min 9 W/m 12,9 km/h (3 Bft) 97,83 %
16.01.2022 09:30 3,2 C 2,8 C 2,8 C 98 % 1024,3 hPa 0,0 l/m 0 min 0 min 9 W/m 6,4 km/h (2 Bft) 95,74 %
16.01.2022 09:28 3,2 C 2,8 C 2,8 C 98 % 1024,3 hPa 0,0 l/m 0 min 0 min 9 W/m 12,9 km/h (3 Bft) 97,87 %
16.01.2022 09:26 3,2 C 2,8 C 2,8 C 98 % 1024,3 hPa 0,0 l/m 0 min 0 min 11 W/m 9,7 km/h (2 Bft) 100,00 %
16.01.2022 09:24 3,2 C 2,8 C 2,8 C 98 % 1024,3 hPa 0,0 l/m 0 min 0 min 11 W/m 6,4 km/h (2 Bft) 100,00 %
16.01.2022 09:22 3,2 C 2,8 C 2,8 C 98 % 1024,4 hPa 0,0 l/m 0 min 0 min 11 W/m 12,9 km/h (3 Bft) 95,74 %
16.01.2022 09:20 3,1 C 2,8 C 2,8 C 98 % 1024,4 hPa 0,0 l/m 0 min 0 min 12 W/m 19,3 km/h (3 Bft) 97,83 %
16.01.2022 09:18 3,1 C 2,8 C 2,8 C 98 % 1024,4 hPa 0,0 l/m 0 min 0 min 14 W/m 12,9 km/h (3 Bft) 97,87 %
16.01.2022 09:16 3,1 C 2,8 C 2,8 C 98 % 1024,4 hPa 0,0 l/m 0 min 0 min 16 W/m 12,9 km/h (3 Bft) 97,87 %
16.01.2022 09:14 3,1 C 2,8 C 2,8 C 98 % 1024,3 hPa 0,0 l/m 0 min 0 min 16 W/m 12,9 km/h (3 Bft) 97,87 %
16.01.2022 09:12 3,1 C 2,8 C 2,8 C 98 % 1024,3 hPa 0,0 l/m 0 min 0 min 15 W/m 6,4 km/h (2 Bft) 97,87 %
16.01.2022 09:10 3,1 C 2,8 C 2,8 C 98 % 1024,3 hPa 0,0 l/m 0 min 0 min 13 W/m 16,1 km/h (3 Bft) 97,87 %
16.01.2022 09:08 3,1 C 2,8 C 2,8 C 98 % 1024,3 hPa 0,0 l/m 0 min 0 min 11 W/m 16,1 km/h (3 Bft) 97,83 %
16.01.2022 09:06 3,0 C 2,8 C 2,8 C 98 % 1024,4 hPa 0,0 l/m 0 min 0 min 9 W/m 16,1 km/h (3 Bft) 97,87 %
16.01.2022 09:04 3,0 C 2,8 C 2,8 C 98 % 1024,4 hPa 0,0 l/m 0 min 0 min 6 W/m 19,3 km/h (3 Bft) 97,87 %
16.01.2022 09:02 3,0 C 2,8 C 2,8 C 98 % 1024,4 hPa 0,0 l/m 0 min 0 min 5 W/m 16,1 km/h (3 Bft) 95,74 %
16.01.2022 09:00 3,0 C 2,8 C 2,8 C 98 % 1024,4 hPa 0,0 l/m 0 min 0 min 2 W/m 9,7 km/h (2 Bft) 97,87 %
16.01.2022 08:58 3,0 C 2,8 C 2,8 C 98 % 1024,3 hPa 0,0 l/m 0 min 0 min 0 W/m 6,4 km/h (2 Bft) 95,74 %
16.01.2022 08:56 2,9 C 2,8 C 2,8 C 98 % 1024,3 hPa 0,0 l/m 0 min 0 min 0 W/m 12,9 km/h (3 Bft) 95,65 %
16.01.2022 08:54 2,9 C 2,8 C 2,8 C 98 % 1024,3 hPa 0,0 l/m 0 min 0 min 0 W/m 16,1 km/h (3 Bft) 95,74 %
16.01.2022 08:52 2,9 C 2,8 C 2,8 C 98 % 1024,3 hPa 0,0 l/m 0 min 0 min 0 W/m 9,7 km/h (2 Bft) 97,87 %
16.01.2022 08:50 2,9 C 2,8 C 2,8 C 98 % 1024,2 hPa 0,0 l/m 0 min 0 min 0 W/m 12,9 km/h (3 Bft) 97,87 %
16.01.2022 08:48 2,9 C 2,8 C 2,8 C 98 % 1024,1 hPa 0,0 l/m 0 min 0 min 0 W/m 9,7 km/h (2 Bft) 95,74 %
16.01.2022 08:46 2,9 C 2,8 C 2,8 C 98 % 1024,2 hPa 0,0 l/m 0 min 0 min 0 W/m 19,3 km/h (3 Bft) 93,62 %
16.01.2022 08:44 2,8 C 2,8 C 2,8 C 98 % 1024,2 hPa 0,0 l/m 0 min 0 min 0 W/m 6,4 km/h (2 Bft) 97,83 %
16.01.2022 08:42 2,8 C 2,8 C 2,8 C 98 % 1024,2 hPa 0,0 l/m 0 min 0 min 0 W/m 6,4 km/h (2 Bft) 97,92 %
16.01.2022 08:40 2,8 C 2,8 C 2,8 C 99 % 1024,2 hPa 0,0 l/m 0 min 0 min 0 W/m 6,4 km/h (2 Bft) 97,87 %
16.01.2022 08:38 2,8 C 2,8 C 2,8 C 99 % 1024,1 hPa 0,0 l/m 0 min 0 min 0 W/m 12,9 km/h (3 Bft) 98,00 %
16.01.2022 08:36 2,8 C 2,8 C 2,8 C 99 % 1024,1 hPa 0,0 l/m 0 min 0 min 0 W/m 6,4 km/h (2 Bft) 97,67 %
16.01.2022 08:34 2,8 C 2,2 C 2,8 C 99 % 1024,1 hPa 0,0 l/m 0 min 0 min 0 W/m 12,9 km/h (3 Bft) 97,83 %
16.01.2022 08:32 2,8 C 2,2 C 2,8 C 99 % 1024,1 hPa 0,0 l/m 0 min 0 min 0 W/m 9,7 km/h (2 Bft) 97,87 %
16.01.2022 08:30 2,7 C 2,2 C 2,8 C 99 % 1024,0 hPa 0,0 l/m 0 min 0 min 0 W/m 9,7 km/h (2 Bft) 97,92 %
16.01.2022 08:28 2,7 C 2,2 C 2,8 C 99 % 1024,0 hPa 0,0 l/m 0 min 0 min 0 W/m 6,4 km/h (2 Bft) 98,00 %
16.01.2022 08:26 2,7 C 2,2 C 2,8 C 98 % 1024,0 hPa 0,0 l/m 0 min 0 min 0 W/m 9,7 km/h (2 Bft) 97,67 %
16.01.2022 08:24 2,7 C 2,2 C 2,8 C 99 % 1024,0 hPa 0,0 l/m 0 min 0 min 0 W/m 9,7 km/h (2 Bft) 97,87 %
16.01.2022 08:22 2,7 C 2,2 C 2,8 C 99 % 1024,0 hPa 0,0 l/m 0 min 0 min 0 W/m 6,4 km/h (2 Bft) 93,75 %
16.01.2022 08:20 2,7 C 2,2 C 2,8 C 99 % 1023,9 hPa 0,0 l/m 0 min 0 min 0 W/m 6,4 km/h (2 Bft) 97,96 %
16.01.2022 08:18 2,7 C 2,2 C 2,8 C 99 % 1023,9 hPa 0,0 l/m 0 min 0 min 0 W/m 6,4 km/h (2 Bft) 100,00 %
16.01.2022 08:16 2,7 C 2,2 C 2,8 C 99 % 1023,8 hPa 0,0 l/m 0 min 0 min 0 W/m 6,4 km/h (2 Bft) 100,00 %
16.01.2022 08:14 2,6 C 2,2 C 2,8 C 99 % 1023,8 hPa 0,0 l/m 0 min 0 min 0 W/m 6,4 km/h (2 Bft) 100,00 %
16.01.2022 08:12 2,6 C 2,2 C 2,8 C 99 % 1023,9 hPa 0,0 l/m 0 min 0 min 0 W/m 9,7 km/h (2 Bft) 97,92 %
16.01.2022 08:10 2,6 C 2,2 C 2,8 C 99 % 1023,9 hPa 0,0 l/m 0 min 0 min 0 W/m 6,4 km/h (2 Bft) 97,96 %
16.01.2022 08:08 2,6 C 2,2 C 2,8 C 99 % 1023,8 hPa 0,0 l/m 0 min 0 min 0 W/m 3,2 km/h (1 Bft) 100,00 %
16.01.2022 08:06 2,6 C 2,2 C 2,8 C 99 % 1023,8 hPa 0,0 l/m 0 min 0 min 0 W/m 6,4 km/h (2 Bft) 100,00 %
16.01.2022 08:04 2,6 C 2,2 C 2,8 C 99 % 1023,7 hPa 0,0 l/m 0 min 0 min 0 W/m 12,9 km/h (3 Bft) 100,00 %
16.01.2022 08:02 2,6 C 2,2 C 2,8 C 99 % 1023,7 hPa 0,0 l/m 0 min 0 min 0 W/m 12,9 km/h (3 Bft) 97,92 %
16.01.2022 08:00 2,6 C 2,2 C 2,8 C 99 % 1023,7 hPa 0,0 l/m 0 min 0 min 0 W/m 6,4 km/h (2 Bft) 100,00 %
16.01.2022 07:58 2,6 C 2,2 C 2,8 C 99 % 1023,7 hPa 0,0 l/m 0 min 0 min 0 W/m 12,9 km/h (3 Bft) 97,62 %
16.01.2022 07:56 2,6 C 2,2 C 2,8 C 99 % 1023,7 hPa 0,0 l/m 0 min 0 min 0 W/m 6,4 km/h (2 Bft) 100,00 %
16.01.2022 07:54 2,5 C 2,2 C 2,8 C 99 % 1023,7 hPa 0,0 l/m 0 min 0 min 0 W/m 9,7 km/h (2 Bft) 100,00 %
16.01.2022 07:52 2,5 C 2,2 C 2,8 C 99 % 1023,7 hPa 0,0 l/m 0 min 0 min 0 W/m 16,1 km/h (3 Bft) 100,00 %
16.01.2022 07:50 2,5 C 2,2 C 2,8 C 99 % 1023,7 hPa 0,0 l/m 0 min 0 min 0 W/m 12,9 km/h (3 Bft) 100,00 %
16.01.2022 07:48 2,4 C 2,2 C 2,8 C 99 % 1023,8 hPa 0,0 l/m 0 min 0 min 0 W/m 16,1 km/h (3 Bft) 100,00 %
16.01.2022 07:46 2,4 C 2,2 C 2,8 C 99 % 1023,9 hPa 0,0 l/m 0 min 0 min 0 W/m 12,9 km/h (3 Bft) 95,83 %
16.01.2022 07:44 2,4 C 2,2 C 2,8 C 99 % 1023,8 hPa 0,0 l/m 0 min 0 min 0 W/m 6,4 km/h (2 Bft) 100,00 %
16.01.2022 07:42 2,4 C 2,2 C 2,2 C 99 % 1023,8 hPa 0,0 l/m 0 min 0 min 0 W/m 6,4 km/h (2 Bft) 100,00 %
16.01.2022 07:40 2,4 C 2,2 C 2,2 C 99 % 1023,8 hPa 0,0 l/m 0 min 0 min 0 W/m 12,9 km/h (3 Bft) 100,00 %
16.01.2022 07:38 2,4 C 2,2 C 2,2 C 99 % 1023,7 hPa 0,0 l/m 0 min 0 min 0 W/m 12,9 km/h (3 Bft) 100,00 %
16.01.2022 07:36 2,3 C 2,2 C 2,2 C 99 % 1023,7 hPa 0,0 l/m 0 min 0 min 0 W/m 9,7 km/h (2 Bft) 98,11 %
16.01.2022 07:34 2,3 C 2,2 C 2,2 C 99 % 1023,6 hPa 0,0 l/m 0 min 0 min 0 W/m 9,7 km/h (2 Bft) 100,00 %
16.01.2022 07:32 2,3 C 2,2 C 2,2 C 99 % 1023,6 hPa 0,0 l/m 0 min 0 min 0 W/m 9,7 km/h (2 Bft) 100,00 %
16.01.2022 07:30 2,3 C 2,2 C 2,2 C 99 % 1023,5 hPa 0,0 l/m 0 min 0 min 0 W/m 12,9 km/h (3 Bft) 97,73 %
16.01.2022 07:28 2,3 C 2,2 C 2,2 C 99 % 1023,5 hPa 0,0 l/m 0 min 0 min 0 W/m 12,9 km/h (3 Bft) 95,74 %
16.01.2022 07:26 2,3 C 2,2 C 2,2 C 99 % 1023,5 hPa 0,0 l/m 0 min 0 min 0 W/m 9,7 km/h (2 Bft) 97,87 %
16.01.2022 07:24 2,3 C 2,2 C 2,2 C 99 % 1023,4 hPa 0,0 l/m 0 min 0 min 0 W/m 6,4 km/h (2 Bft) 97,87 %
16.01.2022 07:22 2,3 C 2,2 C 2,2 C 99 % 1023,4 hPa 0,0 l/m 0 min 0 min 0 W/m 9,7 km/h (2 Bft) 55,56 %
16.01.2022 07:20 2,3 C 2,2 C 2,2 C 99 % 1023,4 hPa 0,0 l/m 0 min 0 min 0 W/m 16,1 km/h (3 Bft) 97,73 %
16.01.2022 07:18 2,2 C 2,2 C 2,2 C 99 % 1023,4 hPa 0,0 l/m 0 min 0 min 0 W/m 19,3 km/h (3 Bft) 97,87 %
16.01.2022 07:16 2,2 C 2,2 C 2,2 C 99 % 1023,4 hPa 0,0 l/m 0 min 0 min 0 W/m 12,9 km/h (3 Bft) 100,00 %
16.01.2022 07:14 2,2 C 2,2 C 2,2 C 99 % 1023,4 hPa 0,0 l/m 0 min 0 min 0 W/m 6,4 km/h (2 Bft) 98,00 %
16.01.2022 07:12 2,2 C 2,2 C 2,2 C 99 % 1023,4 hPa 0,0 l/m 0 min 0 min 0 W/m 9,7 km/h (2 Bft) 95,35 %
16.01.2022 07:10 2,2 C 2,2 C 2,2 C 99 % 1023,4 hPa 0,0 l/m 0 min 0 min 0 W/m 6,4 km/h (2 Bft) 93,62 %
16.01.2022 07:08 2,2 C 2,2 C 2,2 C 99 % 1023,5 hPa 0,0 l/m 0 min 0 min 0 W/m 6,4 km/h (2 Bft) 97,87 %
16.01.2022 07:06 2,1 C 2,2 C 2,2 C 99 % 1023,5 hPa 0,0 l/m 0 min 0 min 0 W/m 12,9 km/h (3 Bft) 96,00 %
16.01.2022 07:04 2,1 C 1,7 C 2,2 C 99 % 1023,5 hPa 0,0 l/m 0 min 0 min 0 W/m 6,4 km/h (2 Bft) 95,45 %
16.01.2022 07:02 2,1 C 1,7 C 2,2 C 99 % 1023,5 hPa 0,0 l/m 0 min 0 min 0 W/m 6,4 km/h (2 Bft) 93,48 %
16.01.2022 07:00 2,1 C 1,7 C 2,2 C 99 % 1023,6 hPa 0,0 l/m 0 min 0 min 0 W/m 6,4 km/h (2 Bft) 95,83 %
16.01.2022 06:58 2,1 C 1,7 C 2,2 C 99 % 1023,6 hPa 0,0 l/m 0 min 0 min 0 W/m 6,4 km/h (2 Bft) 91,84 %
16.01.2022 06:56 2,1 C 1,7 C 2,2 C 99 % 1023,6 hPa 0,0 l/m 0 min 0 min 0 W/m 3,2 km/h (1 Bft) 93,18 %
16.01.2022 06:54 2,1 C 1,7 C 2,2 C 99 % 1023,7 hPa 0,0 l/m 0 min 0 min 0 W/m 3,2 km/h (1 Bft) 91,49 %
16.01.2022 06:52 2,1 C 1,7 C 2,2 C 99 % 1023,6 hPa 0,0 l/m 0 min 0 min 0 W/m 3,2 km/h (1 Bft) 93,62 %
16.01.2022 06:50 2,1 C 1,7 C 2,2 C 99 % 1023,6 hPa 0,0 l/m 0 min 0 min 0 W/m 3,2 km/h (1 Bft) 94,00 %
16.01.2022 06:48 2,1 C 1,7 C 2,2 C 99 % 1023,5 hPa 0,0 l/m 0 min 0 min 0 W/m 9,7 km/h (2 Bft) 90,70 %
16.01.2022 06:46 2,1 C 1,7 C 2,2 C 99 % 1023,5 hPa 0,0 l/m 0 min 0 min 0 W/m 6,4 km/h (2 Bft) 93,62 %
16.01.2022 06:44 2,1 C 1,7 C 2,2 C 99 % 1023,6 hPa 0,0 l/m 0 min 0 min 0 W/m 9,7 km/h (2 Bft) 93,62 %
16.01.2022 06:42 2,1 C 1,7 C 2,2 C 99 % 1023,6 hPa 0,0 l/m 0 min 0 min 0 W/m 12,9 km/h (3 Bft) 94,00 %
16.01.2022 06:40 2,0 C 1,7 C 2,2 C 99 % 1023,5 hPa 0,0 l/m 0 min 0 min 0 W/m 9,7 km/h (2 Bft) 93,18 %
16.01.2022 06:38 2,0 C 1,7 C 2,2 C 99 % 1023,5 hPa 0,0 l/m 0 min 0 min 0 W/m 9,7 km/h (2 Bft) 93,48 %
16.01.2022 06:36 2,0 C 1,7 C 2,2 C 99 % 1023,5 hPa 0,0 l/m 0 min 0 min 0 W/m 16,1 km/h (3 Bft) 97,87 %
16.01.2022 06:34 2,0 C 1,7 C 2,2 C 99 % 1023,5 hPa 0,0 l/m 0 min 0 min 0 W/m 12,9 km/h (3 Bft) 93,62 %
16.01.2022 06:32 2,0 C 1,7 C 2,2 C 99 % 1023,5 hPa 0,0 l/m 0 min 0 min 0 W/m 9,7 km/h (2 Bft) 96,00 %
16.01.2022 06:30 1,9 C 1,7 C 2,2 C 99 % 1023,4 hPa 0,0 l/m 0 min 0 min 0 W/m 12,9 km/h (3 Bft) 95,45 %
16.01.2022 06:28 1,9 C 1,7 C 2,2 C 99 % 1023,4 hPa 0,0 l/m 0 min 0 min 0 W/m 6,4 km/h (2 Bft) 91,49 %
16.01.2022 06:26 1,9 C 1,7 C 2,2 C 99 % 1023,3 hPa 0,0 l/m 0 min 0 min 0 W/m 9,7 km/h (2 Bft) 97,87 %
16.01.2022 06:24 1,9 C 1,7 C 2,2 C 99 % 1023,4 hPa 0,0 l/m 0 min 0 min 0 W/m 3,2 km/h (1 Bft) 95,92 %
16.01.2022 06:22 1,9 C 1,7 C 2,2 C 99 % 1023,4 hPa 0,0 l/m 0 min 0 min 0 W/m 16,1 km/h (3 Bft) 100,00 %
16.01.2022 06:20 1,9 C 1,7 C 2,2 C 99 % 1023,4 hPa 0,0 l/m 0 min 0 min 0 W/m 12,9 km/h (3 Bft) 100,00 %
16.01.2022 06:18 1,8 C 1,7 C 2,2 C 99 % 1023,4 hPa 0,0 l/m 0 min 0 min 0 W/m 9,7 km/h (2 Bft) 95,74 %
16.01.2022 06:16 1,8 C 1,7 C 2,2 C 99 % 1023,3 hPa 0,0 l/m 0 min 0 min 0 W/m 6,4 km/h (2 Bft) 100,00 %
16.01.2022 06:14 1,8 C 1,7 C 2,2 C 99 % 1023,5 hPa 0,0 l/m 0 min 0 min 0 W/m 6,4 km/h (2 Bft) 100,00 %
16.01.2022 06:12 1,8 C 1,7 C 2,2 C 99 % 1023,4 hPa 0,0 l/m 0 min 0 min 0 W/m 3,2 km/h (1 Bft) 100,00 %
16.01.2022 06:10 1,8 C 1,7 C 2,2 C 99 % 1023,4 hPa 0,0 l/m 0 min 0 min 0 W/m 3,2 km/h (1 Bft) 97,87 %
16.01.2022 06:08 1,8 C 1,7 C 2,2 C 99 % 1023,5 hPa 0,0 l/m 0 min 0 min 0 W/m 6,4 km/h (2 Bft) 98,00 %
16.01.2022 06:06 1,8 C 1,7 C 2,2 C 99 % 1023,5 hPa 0,0 l/m 0 min 0 min 0 W/m 9,7 km/h (2 Bft) 100,00 %
16.01.2022 06:04 1,7 C 1,7 C 2,2 C 99 % 1023,6 hPa 0,0 l/m 0 min 0 min 0 W/m 6,4 km/h (2 Bft) 100,00 %
16.01.2022 06:02 1,7 C 1,7 C 2,2 C 99 % 1023,6 hPa 0,0 l/m 0 min 0 min 0 W/m 3,2 km/h (1 Bft) 100,00 %
16.01.2022 06:00 1,7 C 1,7 C 2,2 C 99 % 1023,6 hPa 0,0 l/m 0 min 0 min 0 W/m 3,2 km/h (1 Bft) 100,00 %
16.01.2022 05:58 1,7 C 1,7 C 2,2 C 99 % 1023,6 hPa 0,0 l/m 0 min 0 min 0 W/m 3,2 km/h (1 Bft) 100,00 %
16.01.2022 05:56 1,7 C 1,7 C 2,2 C 99 % 1023,7 hPa 0,0 l/m 0 min 0 min 0 W/m 6,4 km/h (2 Bft) 100,00 %
16.01.2022 05:54 1,7 C 1,1 C 2,2 C 99 % 1023,7 hPa 0,0 l/m 0 min 0 min 0 W/m 6,4 km/h (2 Bft) 100,00 %
16.01.2022 05:52 1,6 C 1,1 C 2,2 C 99 % 1023,7 hPa 0,0 l/m 0 min 0 min 0 W/m 6,4 km/h (2 Bft) 100,00 %
16.01.2022 05:50 1,6 C 1,1 C 2,2 C 99 % 1023,7 hPa 0,0 l/m 0 min 0 min 0 W/m 3,2 km/h (1 Bft) 100,00 %
16.01.2022 05:48 1,6 C 1,1 C 1,7 C 99 % 1023,7 hPa 0,0 l/m 0 min 0 min 0 W/m 6,4 km/h (2 Bft) 100,00 %
16.01.2022 05:46 1,6 C 1,1 C 2,2 C 99 % 1023,7 hPa 0,0 l/m 0 min 0 min 0 W/m 6,4 km/h (2 Bft) 100,00 %
16.01.2022 05:44 1,6 C 1,1 C 2,2 C 99 % 1023,7 hPa 0,0 l/m 0 min 0 min 0 W/m 6,4 km/h (2 Bft) 97,87 %
16.01.2022 05:42 1,6 C 1,1 C 1,7 C 99 % 1023,6 hPa 0,0 l/m 0 min 0 min 0 W/m 9,7 km/h (2 Bft) 97,87 %
16.01.2022 05:40 1,6 C 1,1 C 1,7 C 99 % 1023,6 hPa 0,0 l/m 0 min 0 min 0 W/m 9,7 km/h (2 Bft) 100,00 %
16.01.2022 05:38 1,5 C 1,1 C 1,7 C 99 % 1023,5 hPa 0,0 l/m 0 min 0 min 0 W/m 6,4 km/h (2 Bft) 100,00 %
16.01.2022 05:36 1,5 C 1,1 C 1,7 C 99 % 1023,5 hPa 0,0 l/m 0 min 0 min 0 W/m 3,2 km/h (1 Bft) 100,00 %
16.01.2022 05:34 1,5 C 1,1 C 1,7 C 99 % 1023,6 hPa 0,0 l/m 0 min 0 min 0 W/m 3,2 km/h (1 Bft) 100,00 %
16.01.2022 05:32 1,4 C 1,1 C 1,7 C 99 % 1023,5 hPa 0,0 l/m 0 min 0 min 0 W/m 6,4 km/h (2 Bft) 100,00 %
16.01.2022 05:30 1,4 C 1,1 C 1,7 C 99 % 1023,5 hPa 0,0 l/m 0 min 0 min 0 W/m 3,2 km/h (1 Bft) 100,00 %
16.01.2022 05:28 1,4 C 1,1 C 1,7 C 99 % 1023,6 hPa 0,0 l/m 0 min 0 min 0 W/m 6,4 km/h (2 Bft) 97,62 %
16.01.2022 05:26 1,4 C 1,1 C 1,7 C 99 % 1023,6 hPa 0,0 l/m 0 min 0 min 0 W/m 3,2 km/h (1 Bft) 100,00 %
16.01.2022 05:24 1,4 C 1,1 C 1,7 C 99 % 1023,5 hPa 0,0 l/m 0 min 0 min 0 W/m 3,2 km/h (1 Bft) 100,00 %
16.01.2022 05:22 1,3 C 1,1 C 1,7 C 99 % 1023,5 hPa 0,0 l/m 0 min 0 min 0 W/m 9,7 km/h (2 Bft) 100,00 %
16.01.2022 05:20 1,3 C 1,1 C 1,7 C 99 % 1023,6 hPa 0,0 l/m 0 min 0 min 0 W/m 12,9 km/h (3 Bft) 100,00 %
16.01.2022 05:18 1,3 C 1,1 C 1,7 C 99 % 1023,6 hPa 0,0 l/m 0 min 0 min 0 W/m 6,4 km/h (2 Bft) 100,00 %
16.01.2022 05:16 1,3 C 1,1 C 1,7 C 99 % 1023,6 hPa 0,0 l/m 0 min 0 min 0 W/m 3,2 km/h (1 Bft) 100,00 %
16.01.2022 05:14 1,3 C 1,1 C 1,7 C 99 % 1023,7 hPa 0,0 l/m 0 min 0 min 0 W/m 9,7 km/h (2 Bft) 100,00 %
16.01.2022 05:12 1,3 C 1,1 C 1,7 C 99 % 1023,7 hPa 0,0 l/m 0 min 0 min 0 W/m 6,4 km/h (2 Bft) 100,00 %
16.01.2022 05:10 1,3 C 1,1 C 1,7 C 99 % 1023,7 hPa 0,0 l/m 0 min 0 min 0 W/m 6,4 km/h (2 Bft) 100,00 %
16.01.2022 05:08 1,3 C 1,1 C 1,7 C 99 % 1023,6 hPa 0,0 l/m 0 min 0 min 0 W/m 6,4 km/h (2 Bft) 97,87 %
16.01.2022 05:06 1,3 C 1,1 C 1,7 C 99 % 1023,6 hPa 0,0 l/m 0 min 0 min 0 W/m 3,2 km/h (1 Bft) 100,00 %
16.01.2022 05:04 1,2 C 1,1 C 1,7 C 99 % 1023,7 hPa 0,0 l/m 0 min 0 min 0 W/m 3,2 km/h (1 Bft) 97,87 %
16.01.2022 05:02 1,2 C 1,1 C 1,7 C 99 % 1023,7 hPa 0,0 l/m 0 min 0 min 0 W/m 0,0 km/h (0 Bft) 97,92 %
16.01.2022 05:00 1,2 C 1,1 C 1,7 C 99 % 1023,7 hPa 0,0 l/m 0 min 0 min 0 W/m 3,2 km/h (1 Bft) 98,00 %
16.01.2022 04:58 1,2 C 1,1 C 1,7 C 99 % 1023,6 hPa 0,0 l/m 0 min 0 min 0 W/m 3,2 km/h (1 Bft) 95,35 %
16.01.2022 04:56 1,2 C 0,6 C 1,7 C 99 % 1023,6 hPa 0,0 l/m 0 min 0 min 0 W/m 6,4 km/h (2 Bft) 97,87 %
16.01.2022 04:54 1,2 C 0,6 C 1,7 C 99 % 1023,5 hPa 0,0 l/m 0 min 0 min 0 W/m 6,4 km/h (2 Bft) 97,92 %
16.01.2022 04:52 1,2 C 0,6 C 1,7 C 99 % 1023,6 hPa 0,0 l/m 0 min 0 min 0 W/m 3,2 km/h (1 Bft) 97,96 %
16.01.2022 04:50 1,2 C 0,6 C 1,7 C 99 % 1023,6 hPa 0,0 l/m 0 min 0 min 0 W/m 6,4 km/h (2 Bft) 97,67 %
16.01.2022 04:48 1,2 C 0,6 C 1,7 C 99 % 1023,5 hPa 0,0 l/m 0 min 0 min 0 W/m 6,4 km/h (2 Bft) 97,87 %
16.01.2022 04:46 1,2 C 0,6 C 1,7 C 99 % 1023,5 hPa 0,0 l/m 0 min 0 min 0 W/m 6,4 km/h (2 Bft) 95,74 %
16.01.2022 04:44 1,2 C 1,1 C 1,7 C 99 % 1023,5 hPa 0,0 l/m 0 min 0 min 0 W/m 6,4 km/h (2 Bft) 97,92 %
16.01.2022 04:42 1,2 C 1,1 C 1,7 C 99 % 1023,4 hPa 0,0 l/m 0 min 0 min 0 W/m 6,4 km/h (2 Bft) 95,74 %
16.01.2022 04:40 1,2 C 1,1 C 1,7 C 99 % 1023,5 hPa 0,0 l/m 0 min 0 min 0 W/m 12,9 km/h (3 Bft) 97,83 %
16.01.2022 04:38 1,2 C 1,1 C 1,7 C 99 % 1023,5 hPa 0,0 l/m 0 min 0 min 0 W/m 16,1 km/h (3 Bft) 97,87 %
16.01.2022 04:36 1,2 C 0,6 C 1,7 C 99 % 1023,4 hPa 0,0 l/m 0 min 0 min 0 W/m 9,7 km/h (2 Bft) 95,74 %
16.01.2022 04:34 1,2 C 1,1 C 1,7 C 99 % 1023,5 hPa 0,0 l/m 0 min 0 min 0 W/m 9,7 km/h (2 Bft) 97,87 %
16.01.2022 04:32 1,2 C 0,6 C 1,7 C 99 % 1023,6 hPa 0,0 l/m 0 min 0 min 0 W/m 12,9 km/h (3 Bft) 95,74 %
16.01.2022 04:30 1,2 C 1,1 C 1,7 C 99 % 1023,6 hPa 0,0 l/m 0 min 0 min 0 W/m 25,7 km/h (4 Bft) 97,87 %
16.01.2022 04:28 1,2 C 1,1 C 1,7 C 99 % 1023,6 hPa 0,0 l/m 0 min 0 min 0 W/m 22,5 km/h (4 Bft) 95,65 %
16.01.2022 04:26 1,2 C 1,1 C 1,7 C 99 % 1023,7 hPa 0,0 l/m 0 min 0 min 0 W/m 12,9 km/h (3 Bft) 93,62 %
16.01.2022 04:24 1,3 C 1,1 C 1,7 C 99 % 1023,6 hPa 0,0 l/m 0 min 0 min 0 W/m 16,1 km/h (3 Bft) 95,74 %
16.01.2022 04:22 1,3 C 1,1 C 1,7 C 99 % 1023,6 hPa 0,0 l/m 0 min 0 min 0 W/m 9,7 km/h (2 Bft) 95,74 %
16.01.2022 04:20 1,3 C 1,1 C 1,7 C 99 % 1023,7 hPa 0,0 l/m 0 min 0 min 0 W/m 12,9 km/h (3 Bft) 89,36 %
16.01.2022 04:18 1,3 C 1,1 C 1,7 C 99 % 1023,6 hPa 0,0 l/m 0 min 0 min 0 W/m 16,1 km/h (3 Bft) 93,62 %
16.01.2022 04:16 1,3 C 1,1 C 1,7 C 99 % 1023,7 hPa 0,0 l/m 0 min 0 min 0 W/m 12,9 km/h (3 Bft) 95,65 %
16.01.2022 04:14 1,3 C 1,1 C 1,7 C 99 % 1023,7 hPa 0,0 l/m 0 min 0 min 0 W/m 9,7 km/h (2 Bft) 97,87 %
16.01.2022 04:12 1,3 C 1,1 C 1,7 C 99 % 1023,8 hPa 0,0 l/m 0 min 0 min 0 W/m 19,3 km/h (3 Bft) 95,74 %
16.01.2022 04:10 1,4 C 1,1 C 1,7 C 99 % 1023,8 hPa 0,0 l/m 0 min 0 min 0 W/m 25,7 km/h (4 Bft) 95,74 %
16.01.2022 04:08 1,4 C 1,1 C 1,7 C 99 % 1023,8 hPa 0,0 l/m 0 min 0 min 0 W/m 9,7 km/h (2 Bft) 95,74 %
16.01.2022 04:06 1,4 C 1,1 C 1,7 C 99 % 1023,8 hPa 0,0 l/m 0 min 0 min 0 W/m 19,3 km/h (3 Bft) 93,62 %
16.01.2022 04:04 1,4 C 1,1 C 1,7 C 99 % 1023,8 hPa 0,0 l/m 0 min 0 min 0 W/m 12,9 km/h (3 Bft) 97,83 %
16.01.2022 04:02 1,4 C 1,1 C 1,7 C 99 % 1023,8 hPa 0,0 l/m 0 min 0 min 0 W/m 12,9 km/h (3 Bft) 100,00 %
16.01.2022 04:00 1,5 C 1,1 C 1,7 C 99 % 1023,8 hPa 0,0 l/m 0 min 0 min 0 W/m 12,9 km/h (3 Bft) 93,62 %
16.01.2022 03:58 1,5 C 1,1 C 1,7 C 99 % 1023,8 hPa 0,0 l/m 0 min 0 min 0 W/m 6,4 km/h (2 Bft) 95,74 %
16.01.2022 03:56 1,5 C 1,1 C 1,7 C 99 % 1023,8 hPa 0,0 l/m 0 min 0 min 0 W/m 6,4 km/h (2 Bft) 95,74 %
16.01.2022 03:54 1,5 C 1,1 C 1,7 C 99 % 1024,0 hPa 0,0 l/m 0 min 0 min 0 W/m 19,3 km/h (3 Bft) 97,87 %
16.01.2022 03:52 1,5 C 1,1 C 1,7 C 99 % 1023,8 hPa 0,0 l/m 0 min 0 min 0 W/m 9,7 km/h (2 Bft) 95,65 %
16.01.2022 03:50 1,5 C 1,1 C 1,7 C 99 % 1023,8 hPa 0,0 l/m 0 min 0 min 0 W/m 12,9 km/h (3 Bft) 95,74 %
16.01.2022 03:48 1,6 C 1,1 C 1,7 C 99 % 1023,8 hPa 0,0 l/m 0 min 0 min 0 W/m 6,4 km/h (2 Bft) 97,87 %
16.01.2022 03:46 1,6 C 1,1 C 1,7 C 99 % 1024,0 hPa 0,0 l/m 0 min 0 min 0 W/m 16,1 km/h (3 Bft) 97,87 %
16.01.2022 03:44 1,6 C 1,1 C 1,7 C 99 % 1024,0 hPa 0,0 l/m 0 min 0 min 0 W/m 9,7 km/h (2 Bft) 97,87 %
16.01.2022 03:42 1,6 C 1,1 C 1,7 C 99 % 1024,1 hPa 0,0 l/m 0 min 0 min 0 W/m 16,1 km/h (3 Bft) 93,62 %
16.01.2022 03:40 1,6 C 1,1 C 1,7 C 99 % 1024,1 hPa 0,0 l/m 0 min 0 min 0 W/m 12,9 km/h (3 Bft) 97,83 %
16.01.2022 03:38 1,6 C 1,1 C 1,7 C 99 % 1024,1 hPa 0,0 l/m 0 min 0 min 0 W/m 9,7 km/h (2 Bft) 100,00 %
16.01.2022 03:36 1,6 C 1,1 C 1,7 C 99 % 1024,2 hPa 0,0 l/m 0 min 0 min 0 W/m 12,9 km/h (3 Bft) 97,87 %
16.01.2022 03:34 1,6 C 1,1 C 1,7 C 99 % 1024,2 hPa 0,0 l/m 0 min 0 min 0 W/m 16,1 km/h (3 Bft) 100,00 %
16.01.2022 03:32 1,7 C 1,1 C 1,7 C 99 % 1024,2 hPa 0,0 l/m 0 min 0 min 0 W/m 6,4 km/h (2 Bft) 95,74 %
16.01.2022 03:30 1,7 C 1,1 C 1,7 C 99 % 1024,2 hPa 0,0 l/m 0 min 0 min 0 W/m 12,9 km/h (3 Bft) 97,83 %
16.01.2022 03:28 1,7 C 1,1 C 1,7 C 99 % 1024,1 hPa 0,0 l/m 0 min 0 min 0 W/m 9,7 km/h (2 Bft) 100,00 %
16.01.2022 03:26 1,7 C 1,1 C 1,7 C 99 % 1024,1 hPa 0,0 l/m 0 min 0 min 0 W/m 9,7 km/h (2 Bft) 97,87 %
16.01.2022 03:24 1,7 C 1,1 C 1,7 C 99 % 1024,1 hPa 0,0 l/m 0 min 0 min 0 W/m 16,1 km/h (3 Bft) 100,00 %
16.01.2022 03:22 1,7 C 1,1 C 1,7 C 99 % 1024,1 hPa 0,0 l/m 0 min 0 min 0 W/m 16,1 km/h (3 Bft) 100,00 %
16.01.2022 03:20 1,7 C 1,1 C 1,7 C 99 % 1024,2 hPa 0,0 l/m 0 min 0 min 0 W/m 16,1 km/h (3 Bft) 100,00 %
16.01.2022 03:18 1,7 C 1,1 C 1,7 C 99 % 1024,1 hPa 0,0 l/m 0 min 0 min 0 W/m 9,7 km/h (2 Bft) 97,83 %
16.01.2022 03:16 1,7 C 1,1 C 1,7 C 99 % 1024,2 hPa 0,0 l/m 0 min 0 min 0 W/m 9,7 km/h (2 Bft) 100,00 %
16.01.2022 03:14 1,7 C 1,1 C 2,2 C 99 % 1024,1 hPa 0,0 l/m 0 min 0 min 0 W/m 12,9 km/h (3 Bft) 100,00 %
16.01.2022 03:12 1,7 C 1,1 C 1,7 C 99 % 1024,1 hPa 0,0 l/m 0 min 0 min 0 W/m 9,7 km/h (2 Bft) 97,87 %
16.01.2022 03:10 1,7 C 1,1 C 1,7 C 99 % 1024,2 hPa 0,0 l/m 0 min 0 min 0 W/m 12,9 km/h (3 Bft) 97,87 %
16.01.2022 03:08 1,7 C 1,1 C 1,7 C 99 % 1024,2 hPa 0,0 l/m 0 min 0 min 0 W/m 6,4 km/h (2 Bft) 97,87 %
16.01.2022 03:06 1,7 C 1,1 C 1,7 C 99 % 1024,1 hPa 0,0 l/m 0 min 0 min 0 W/m 9,7 km/h (2 Bft) 97,83 %
16.01.2022 03:04 1,7 C 1,1 C 1,7 C 99 % 1024,1 hPa 0,0 l/m 0 min 0 min 0 W/m 9,7 km/h (2 Bft) 97,87 %
16.01.2022 03:02 1,7 C 1,1 C 1,7 C 99 % 1024,1 hPa 0,0 l/m 0 min 0 min 0 W/m 12,9 km/h (3 Bft) 97,87 %
16.01.2022 03:00 1,7 C 1,1 C 1,7 C 99 % 1024,1 hPa 0,0 l/m 0 min 0 min 0 W/m 6,4 km/h (2 Bft) 97,87 %
16.01.2022 02:58 1,7 C 1,1 C 1,7 C 99 % 1024,1 hPa 0,0 l/m 0 min 0 min 0 W/m 6,4 km/h (2 Bft) 97,87 %
16.01.2022 02:56 1,7 C 1,1 C 1,7 C 99 % 1024,0 hPa 0,0 l/m 0 min 0 min 0 W/m 6,4 km/h (2 Bft) 97,87 %
16.01.2022 02:54 1,7 C 1,1 C 1,7 C 99 % 1023,9 hPa 0,0 l/m 0 min 0 min 0 W/m 6,4 km/h (2 Bft) 97,83 %
16.01.2022 02:52 1,7 C 1,1 C 1,7 C 99 % 1023,9 hPa 0,0 l/m 0 min 0 min 0 W/m 12,9 km/h (3 Bft) 97,87 %
16.01.2022 02:50 1,7 C 1,1 C 1,7 C 99 % 1023,7 hPa 0,0 l/m 0 min 0 min 0 W/m 6,4 km/h (2 Bft) 97,87 %
16.01.2022 02:48 1,7 C 1,1 C 1,7 C 99 % 1023,5 hPa 0,0 l/m 0 min 0 min 0 W/m 9,7 km/h (2 Bft) 97,87 %
16.01.2022 02:46 1,7 C 1,1 C 1,7 C 99 % 1023,6 hPa 0,0 l/m 0 min 0 min 0 W/m 16,1 km/h (3 Bft) 98,00 %
16.01.2022 02:44 1,7 C 1,1 C 1,7 C 99 % 1023,6 hPa 0,0 l/m 0 min 0 min 0 W/m 9,7 km/h (2 Bft) 97,87 %
16.01.2022 02:42 1,8 C 1,1 C 1,7 C 99 % 1023,6 hPa 0,0 l/m 0 min 0 min 0 W/m 12,9 km/h (3 Bft) 97,62 %
16.01.2022 02:40 1,8 C 1,1 C 1,7 C 99 % 1023,5 hPa 0,0 l/m 0 min 0 min 0 W/m 9,7 km/h (2 Bft) 97,87 %
16.01.2022 02:38 1,8 C 1,1 C 1,7 C 99 % 1023,7 hPa 0,0 l/m 0 min 0 min 0 W/m 12,9 km/h (3 Bft) 100,00 %
16.01.2022 02:36 1,8 C 1,1 C 1,7 C 99 % 1024,0 hPa 0,0 l/m 0 min 0 min 0 W/m 12,9 km/h (3 Bft) 100,00 %
16.01.2022 02:34 1,8 C 1,1 C 1,7 C 99 % 1024,3 hPa 0,0 l/m 0 min 0 min 0 W/m 16,1 km/h (3 Bft) 100,00 %
16.01.2022 02:32 1,8 C 1,1 C 1,7 C 99 % 1024,2 hPa 0,0 l/m 0 min 0 min 0 W/m 9,7 km/h (2 Bft) 97,96 %
16.01.2022 02:30 1,8 C 1,1 C 2,2 C 99 % 1024,3 hPa 0,0 l/m 0 min 0 min 0 W/m 9,7 km/h (2 Bft) 100,00 %
16.01.2022 02:28 1,8 C 1,1 C 1,7 C 99 % 1024,3 hPa 0,0 l/m 0 min 0 min 0 W/m 9,7 km/h (2 Bft) 100,00 %
16.01.2022 02:26 1,8 C 1,1 C 1,7 C 99 % 1024,2 hPa 0,0 l/m 0 min 0 min 0 W/m 12,9 km/h (3 Bft) 97,87 %
16.01.2022 02:24 1,8 C 1,1 C 1,7 C 99 % 1024,1 hPa 0,0 l/m 0 min 0 min 0 W/m 12,9 km/h (3 Bft) 100,00 %
16.01.2022 02:22 1,8 C 1,1 C 1,7 C 99 % 1024,1 hPa 0,0 l/m 0 min 0 min 0 W/m 9,7 km/h (2 Bft) 100,00 %
16.01.2022 02:20 1,8 C 1,1 C 1,7 C 99 % 1024,3 hPa 0,0 l/m 0 min 0 min 0 W/m 16,1 km/h (3 Bft) 97,83 %
16.01.2022 02:18 1,9 C 1,1 C 2,2 C 99 % 1024,1 hPa 0,0 l/m 0 min 0 min 0 W/m 12,9 km/h (3 Bft) 100,00 %
16.01.2022 02:16 1,9 C 1,1 C 2,2 C 99 % 1024,1 hPa 0,0 l/m 0 min 0 min 0 W/m 16,1 km/h (3 Bft) 100,00 %
16.01.2022 02:14 1,9 C 1,1 C 2,2 C 99 % 1024,2 hPa 0,0 l/m 0 min 0 min 0 W/m 12,9 km/h (3 Bft) 100,00 %
16.01.2022 02:12 1,9 C 1,1 C 2,2 C 99 % 1024,1 hPa 0,0 l/m 0 min 0 min 0 W/m 6,4 km/h (2 Bft) 100,00 %
16.01.2022 02:10 1,9 C 1,7 C 2,2 C 99 % 1024,1 hPa 0,0 l/m 0 min 0 min 0 W/m 9,7 km/h (2 Bft) 100,00 %
16.01.2022 02:08 1,9 C 1,7 C 2,2 C 99 % 1024,0 hPa 0,0 l/m 0 min 0 min 0 W/m 12,9 km/h (3 Bft) 100,00 %
16.01.2022 02:06 1,9 C 1,7 C 2,2 C 99 % 1023,8 hPa 0,0 l/m 0 min 0 min 0 W/m 9,7 km/h (2 Bft) 97,87 %
16.01.2022 02:04 1,9 C 1,7 C 2,2 C 99 % 1024,0 hPa 0,0 l/m 0 min 0 min 0 W/m 12,9 km/h (3 Bft) 100,00 %
16.01.2022 02:02 1,9 C 1,7 C 2,2 C 99 % 1024,0 hPa 0,0 l/m 0 min 0 min 0 W/m 9,7 km/h (2 Bft) 96,30 %
16.01.2022 02:00 1,9 C 1,7 C 2,2 C 99 % 1024,2 hPa 0,0 l/m 0 min 0 min 0 W/m 6,4 km/h (2 Bft) 97,87 %
16.01.2022 01:58 1,9 C 1,7 C 2,2 C 99 % 1024,3 hPa 0,0 l/m 0 min 0 min 0 W/m 12,9 km/h (3 Bft) 98,00 %
16.01.2022 01:56 1,9 C 1,7 C 2,2 C 99 % 1024,2 hPa 0,0 l/m 0 min 0 min 0 W/m 3,2 km/h (1 Bft) 97,87 %
16.01.2022 01:54 1,9 C 1,7 C 2,2 C 99 % 1024,3 hPa 0,0 l/m 0 min 0 min 0 W/m 19,3 km/h (3 Bft) 97,22 %
16.01.2022 01:52 1,9 C 1,7 C 2,2 C 99 % 1024,4 hPa 0,0 l/m 0 min 0 min 0 W/m 19,3 km/h (3 Bft) 97,87 %
16.01.2022 01:50 1,9 C 1,7 C 2,2 C 99 % 1024,3 hPa 0,0 l/m 0 min 0 min 0 W/m 16,1 km/h (3 Bft) 97,87 %
16.01.2022 01:48 1,9 C 1,7 C 2,2 C 99 % 1024,2 hPa 0,0 l/m 0 min 0 min 0 W/m 12,9 km/h (3 Bft) 97,87 %
16.01.2022 01:46 1,9 C 1,7 C 2,2 C 99 % 1024,2 hPa 0,0 l/m 0 min 0 min 0 W/m 6,4 km/h (2 Bft) 97,87 %
16.01.2022 01:44 1,9 C 1,7 C 2,2 C 99 % 1024,3 hPa 0,0 l/m 0 min 0 min 0 W/m 12,9 km/h (3 Bft) 95,74 %
16.01.2022 01:42 1,9 C 1,7 C 2,2 C 99 % 1024,2 hPa 0,0 l/m 0 min 0 min 0 W/m 12,9 km/h (3 Bft) 97,96 %
16.01.2022 01:40 1,9 C 1,7 C 2,2 C 99 % 1024,1 hPa 0,0 l/m 0 min 0 min 0 W/m 12,9 km/h (3 Bft) 97,87 %
16.01.2022 01:38 1,9 C 1,7 C 2,2 C 99 % 1024,1 hPa 0,0 l/m 0 min 0 min 0 W/m 12,9 km/h (3 Bft) 95,74 %
16.01.2022 01:36 1,9 C 1,7 C 2,2 C 99 % 1024,1 hPa 0,0 l/m 0 min 0 min 0 W/m 12,9 km/h (3 Bft) 96,30 %
16.01.2022 01:34 1,9 C 1,7 C 2,2 C 99 % 1024,0 hPa 0,0 l/m 0 min 0 min 0 W/m 16,1 km/h (3 Bft) 97,87 %
16.01.2022 01:32 1,9 C 1,7 C 2,2 C 99 % 1024,0 hPa 0,0 l/m 0 min 0 min 0 W/m 12,9 km/h (3 Bft) 100,00 %
16.01.2022 01:30 1,9 C 1,7 C 2,2 C 99 % 1024,0 hPa 0,0 l/m 0 min 0 min 0 W/m 12,9 km/h (3 Bft) 95,92 %
16.01.2022 01:28 1,9 C 1,7 C 2,2 C 99 % 1024,0 hPa 0,0 l/m 0 min 0 min 0 W/m 12,9 km/h (3 Bft) 95,74 %
16.01.2022 01:26 1,8 C 1,7 C 2,2 C 99 % 1024,0 hPa 0,0 l/m 0 min 0 min 0 W/m 16,1 km/h (3 Bft) 96,30 %
16.01.2022 01:24 1,9 C 1,7 C 2,2 C 99 % 1024,0 hPa 0,0 l/m 0 min 0 min 0 W/m 12,9 km/h (3 Bft) 95,74 %
16.01.2022 01:22 1,9 C 1,7 C 2,2 C 99 % 1024,1 hPa 0,0 l/m 0 min 0 min 0 W/m 6,4 km/h (2 Bft) 95,74 %
16.01.2022 01:20 1,9 C 1,7 C 2,2 C 99 % 1024,0 hPa 0,0 l/m 0 min 0 min 0 W/m 22,5 km/h (4 Bft) 97,87 %
16.01.2022 01:18 1,9 C 1,7 C 2,2 C 99 % 1024,0 hPa 0,0 l/m 0 min 0 min 0 W/m 12,9 km/h (3 Bft) 97,87 %
16.01.2022 01:16 1,8 C 1,7 C 2,2 C 99 % 1024,1 hPa 0,0 l/m 0 min 0 min 0 W/m 9,7 km/h (2 Bft) 97,30 %
16.01.2022 01:14 1,8 C 1,7 C 2,2 C 99 % 1024,1 hPa 0,0 l/m 0 min 0 min 0 W/m 6,4 km/h (2 Bft) 91,49 %
16.01.2022 01:12 1,8 C 1,7 C 2,2 C 99 % 1024,0 hPa 0,0 l/m 0 min 0 min 0 W/m 12,9 km/h (3 Bft) 95,74 %
16.01.2022 01:10 1,8 C 1,1 C 2,2 C 99 % 1024,0 hPa 0,0 l/m 0 min 0 min 0 W/m 12,9 km/h (3 Bft) 97,87 %
16.01.2022 01:08 1,8 C 1,7 C 2,2 C 99 % 1023,9 hPa 0,0 l/m 0 min 0 min 0 W/m 12,9 km/h (3 Bft) 95,65 %
16.01.2022 01:06 1,8 C 1,1 C 2,2 C 99 % 1023,8 hPa 0,0 l/m 0 min 0 min 0 W/m 6,4 km/h (2 Bft) 95,74 %
16.01.2022 01:04 1,8 C 1,1 C 2,2 C 99 % 1023,7 hPa 0,0 l/m 0 min 0 min 0 W/m 6,4 km/h (2 Bft) 93,62 %
16.01.2022 01:02 1,8 C 1,1 C 2,2 C 99 % 1023,8 hPa 0,0 l/m 0 min 0 min 0 W/m 9,7 km/h (2 Bft) 93,62 %
16.01.2022 01:00 1,8 C 1,1 C 2,2 C 99 % 1023,9 hPa 0,0 l/m 0 min 0 min 0 W/m 16,1 km/h (3 Bft) 95,74 %
16.01.2022 00:58 1,8 C 1,7 C 2,2 C 99 % 1024,1 hPa 0,0 l/m 0 min 0 min 0 W/m 6,4 km/h (2 Bft) 95,74 %
16.01.2022 00:56 1,8 C 1,1 C 2,2 C 99 % 1024,1 hPa 0,0 l/m 0 min 0 min 0 W/m 12,9 km/h (3 Bft) 93,62 %
16.01.2022 00:54 1,8 C 1,1 C 2,2 C 99 % 1024,3 hPa 0,0 l/m 0 min 0 min 0 W/m 12,9 km/h (3 Bft) 93,62 %
16.01.2022 00:52 1,8 C 1,1 C 1,7 C 99 % 1024,2 hPa 0,0 l/m 0 min 0 min 0 W/m 19,3 km/h (3 Bft) 93,62 %
16.01.2022 00:50 1,8 C 1,1 C 1,7 C 99 % 1024,3 hPa 0,0 l/m 0 min 0 min 0 W/m 16,1 km/h (3 Bft) 91,30 %
16.01.2022 00:48 1,8 C 1,1 C 2,2 C 99 % 1024,3 hPa 0,0 l/m 0 min 0 min 0 W/m 9,7 km/h (2 Bft) 93,62 %
16.01.2022 00:46 1,8 C 1,1 C 2,2 C 99 % 1024,2 hPa 0,0 l/m 0 min 0 min 0 W/m 9,7 km/h (2 Bft) 95,74 %
16.01.2022 00:44 1,8 C 1,1 C 2,2 C 99 % 1024,2 hPa 0,0 l/m 0 min 0 min 0 W/m 12,9 km/h (3 Bft) 95,74 %
16.01.2022 00:42 1,8 C 1,1 C 1,7 C 99 % 1024,2 hPa 0,0 l/m 0 min 0 min 0 W/m 12,9 km/h (3 Bft) 97,87 %
16.01.2022 00:40 1,8 C 1,1 C 2,2 C 99 % 1024,2 hPa 0,0 l/m 0 min 0 min 0 W/m 9,7 km/h (2 Bft) 95,74 %
16.01.2022 00:38 1,8 C 1,1 C 1,7 C 99 % 1024,2 hPa 0,0 l/m 0 min 0 min 0 W/m 9,7 km/h (2 Bft) 97,83 %
16.01.2022 00:36 1,8 C 1,1 C 1,7 C 99 % 1024,2 hPa 0,0 l/m 0 min 0 min 0 W/m 9,7 km/h (2 Bft) 97,87 %
16.01.2022 00:34 1,8 C 1,1 C 1,7 C 99 % 1024,2 hPa 0,0 l/m 0 min 0 min 0 W/m 12,9 km/h (3 Bft) 97,87 %
16.01.2022 00:32 1,8 C 1,1 C 1,7 C 99 % 1024,3 hPa 0,0 l/m 0 min 0 min 0 W/m 6,4 km/h (2 Bft) 58,14 %
16.01.2022 00:30 1,8 C 1,1 C 1,7 C 99 % 1024,4 hPa 0,0 l/m 0 min 0 min 0 W/m 12,9 km/h (3 Bft) 93,62 %
16.01.2022 00:28 1,8 C 1,1 C 1,7 C 99 % 1024,3 hPa 0,0 l/m 0 min 0 min 0 W/m 12,9 km/h (3 Bft) 97,87 %
16.01.2022 00:26 1,8 C 1,1 C 1,7 C 99 % 1024,3 hPa 0,0 l/m 0 min 0 min 0 W/m 12,9 km/h (3 Bft) 95,65 %
16.01.2022 00:24 1,8 C 1,1 C 1,7 C 99 % 1024,3 hPa 0,0 l/m 0 min 0 min 0 W/m 12,9 km/h (3 Bft) 100,00 %
16.01.2022 00:22 1,8 C 1,1 C 1,7 C 99 % 1024,1 hPa 0,0 l/m 0 min 0 min 0 W/m 19,3 km/h (3 Bft) 97,87 %
16.01.2022 00:20 1,8 C 1,1 C 1,7 C 99 % 1024,1 hPa 0,0 l/m 0 min 0 min 0 W/m 16,1 km/h (3 Bft) 100,00 %
16.01.2022 00:18 1,8 C 1,1 C 1,7 C 99 % 1024,1 hPa 0,0 l/m 0 min 0 min 0 W/m 12,9 km/h (3 Bft) 97,87 %
16.01.2022 00:16 1,8 C 1,1 C 1,7 C 99 % 1024,2 hPa 0,0 l/m 0 min 0 min 0 W/m 16,1 km/h (3 Bft) 93,62 %
16.01.2022 00:14 1,8 C 1,1 C 1,7 C 99 % 1024,2 hPa 0,0 l/m 0 min 0 min 0 W/m 16,1 km/h (3 Bft) 97,83 %
16.01.2022 00:12 1,8 C 1,1 C 1,7 C 99 % 1024,2 hPa 0,0 l/m 0 min 0 min 0 W/m 9,7 km/h (2 Bft) 100,00 %
16.01.2022 00:10 1,8 C 1,1 C 1,7 C 99 % 1024,2 hPa 0,0 l/m 0 min 0 min 0 W/m 12,9 km/h (3 Bft) 100,00 %
16.01.2022 00:08 1,8 C 1,1 C 1,7 C 99 % 1024,1 hPa 0,0 l/m 0 min 0 min 0 W/m 12,9 km/h (3 Bft) 100,00 %
16.01.2022 00:04 1,8 C 1,1 C 1,7 C 99 % 1024,2 hPa 0,0 l/m 0 min 0 min 0 W/m 6,4 km/h (2 Bft) 96,77 %
16.01.2022 00:02 1,8 C 1,1 C 1,7 C 99 % 1024,3 hPa 0,0 l/m 0 min 0 min 0 W/m 6,4 km/h (2 Bft) 9,52 %
16.01.2022 00:00 1,8 C 1,1 C 1,7 C 99 % 1024,3 hPa 0,0 l/m 0 min 0 min 0 W/m 16,1 km/h (3 Bft) 97,87 %
15.01.2022 23:58 1,8 C 1,1 C 1,7 C 99 % 1024,3 hPa 0,0 l/m 0 min 0 min 0 W/m 16,1 km/h (3 Bft) 100,00 %
15.01.2022 23:56 1,8 C 1,1 C 1,7 C 99 % 1024,3 hPa 0,0 l/m 0 min 0 min 0 W/m 12,9 km/h (3 Bft) 97,87 %
15.01.2022 23:54 1,8 C 1,1 C 1,7 C 99 % 1024,4 hPa 0,0 l/m 0 min 0 min 0 W/m 12,9 km/h (3 Bft) 100,00 %
15.01.2022 23:52 1,8 C 1,1 C 1,7 C 99 % 1024,5 hPa 0,0 l/m 0 min 0 min 0 W/m 12,9 km/h (3 Bft) 97,83 %
15.01.2022 23:50 1,8 C 1,1 C 1,7 C 99 % 1024,6 hPa 0,0 l/m 0 min 0 min 0 W/m 6,4 km/h (2 Bft) 100,00 %
15.01.2022 23:48 1,8 C 1,1 C 1,7 C 99 % 1024,5 hPa 0,0 l/m 0 min 0 min 0 W/m 6,4 km/h (2 Bft) 100,00 %
15.01.2022 23:46 1,8 C 1,1 C 1,7 C 99 % 1024,6 hPa 0,0 l/m 0 min 0 min 0 W/m 6,4 km/h (2 Bft) 97,87 %
15.01.2022 23:44 1,8 C 1,1 C 1,7 C 99 % 1024,5 hPa 0,0 l/m 0 min 0 min 0 W/m 12,9 km/h (3 Bft) 97,87 %
15.01.2022 23:42 1,8 C 1,1 C 1,7 C 99 % 1024,4 hPa 0,0 l/m 0 min 0 min 0 W/m 12,9 km/h (3 Bft) 100,00 %
15.01.2022 23:40 1,8 C 1,1 C 1,7 C 99 % 1024,4 hPa 0,0 l/m 0 min 0 min 0 W/m 16,1 km/h (3 Bft) 97,87 %
15.01.2022 23:38 1,8 C 1,1 C 1,7 C 99 % 1024,4 hPa 0,0 l/m 0 min 0 min 0 W/m 16,1 km/h (3 Bft) 97,87 %
15.01.2022 23:36 1,8 C 1,1 C 1,7 C 99 % 1024,4 hPa 0,0 l/m 0 min 0 min 0 W/m 12,9 km/h (3 Bft) 97,87 %
15.01.2022 23:34 1,8 C 1,1 C 1,7 C 99 % 1024,5 hPa 0,0 l/m 0 min 0 min 0 W/m 16,1 km/h (3 Bft) 97,87 %
15.01.2022 23:32 1,8 C 1,1 C 1,7 C 99 % 1024,7 hPa 0,0 l/m 0 min 0 min 0 W/m 19,3 km/h (3 Bft) 98,00 %
15.01.2022 23:30 1,7 C 1,1 C 1,7 C 99 % 1024,7 hPa 0,0 l/m 0 min 0 min 0 W/m 19,3 km/h (3 Bft) 95,65 %
15.01.2022 23:28 1,7 C 1,1 C 1,7 C 99 % 1024,7 hPa 0,0 l/m 0 min 0 min 0 W/m 9,7 km/h (2 Bft) 97,87 %
15.01.2022 23:26 1,7 C 1,1 C 1,7 C 99 % 1024,7 hPa 0,0 l/m 0 min 0 min 0 W/m 16,1 km/h (3 Bft) 97,87 %
15.01.2022 23:24 1,7 C 1,1 C 1,7 C 99 % 1024,7 hPa 0,0 l/m 0 min 0 min 0 W/m 16,1 km/h (3 Bft) 97,87 %
15.01.2022 23:22 1,7 C 1,1 C 1,7 C 99 % 1024,7 hPa 0,0 l/m 0 min 0 min 0 W/m 12,9 km/h (3 Bft) 95,74 %
15.01.2022 23:20 1,7 C 1,1 C 1,7 C 99 % 1024,8 hPa 0,0 l/m 0 min 0 min 0 W/m 12,9 km/h (3 Bft) 95,65 %
15.01.2022 23:18 1,7 C 1,1 C 1,7 C 99 % 1024,8 hPa 0,0 l/m 0 min 0 min 0 W/m 16,1 km/h (3 Bft) 95,74 %
15.01.2022 23:16 1,7 C 1,1 C 1,7 C 99 % 1024,8 hPa 0,0 l/m 0 min 0 min 0 W/m 12,9 km/h (3 Bft) 95,74 %
15.01.2022 23:14 1,7 C 1,1 C 1,7 C 99 % 1024,8 hPa 0,0 l/m 0 min 0 min 0 W/m 16,1 km/h (3 Bft) 95,74 %
15.01.2022 23:12 1,7 C 1,1 C 1,7 C 99 % 1024,7 hPa 0,0 l/m 0 min 0 min 0 W/m 16,1 km/h (3 Bft) 95,74 %
15.01.2022 23:10 1,7 C 1,1 C 1,7 C 99 % 1024,7 hPa 0,0 l/m 0 min 0 min 0 W/m 16,1 km/h (3 Bft) 95,74 %
15.01.2022 23:08 1,7 C 1,1 C 1,7 C 99 % 1024,7 hPa 0,0 l/m 0 min 0 min 0 W/m 16,1 km/h (3 Bft) 95,65 %
15.01.2022 23:06 1,7 C 1,1 C 1,7 C 99 % 1024,7 hPa 0,0 l/m 0 min 0 min 0 W/m 6,4 km/h (2 Bft) 95,74 %
15.01.2022 23:04 1,7 C 1,1 C 1,7 C 99 % 1024,6 hPa 0,0 l/m 0 min 0 min 0 W/m 16,1 km/h (3 Bft) 95,74 %
15.01.2022 23:02 1,7 C 1,1 C 1,7 C 99 % 1024,6 hPa 0,0 l/m 0 min 0 min 0 W/m 9,7 km/h (2 Bft) 95,74 %
15.01.2022 23:00 1,7 C 1,1 C 1,7 C 99 % 1024,8 hPa 0,0 l/m 0 min 0 min 0 W/m 16,1 km/h (3 Bft) 93,62 %
15.01.2022 22:58 1,7 C 1,1 C 1,7 C 99 % 1024,8 hPa 0,0 l/m 0 min 0 min 0 W/m 6,4 km/h (2 Bft) 91,30 %
15.01.2022 22:57 1,7 C 1,1 C 1,7 C 99 % 1024,8 hPa 0,0 l/m 0 min 0 min 0 W/m 16,1 km/h (3 Bft) 97,06 %
15.01.2022 22:52 1,7 C 1,1 C 1,7 C 99 % 1024,7 hPa 0,0 l/m 0 min 0 min 0 W/m 12,9 km/h (3 Bft) 97,87 %
15.01.2022 22:50 1,7 C 1,1 C 1,7 C 99 % 1024,7 hPa 0,0 l/m 0 min 0 min 0 W/m 16,1 km/h (3 Bft) 93,62 %
15.01.2022 22:48 1,7 C 1,1 C 1,7 C 99 % 1024,7 hPa 0,0 l/m 0 min 0 min 0 W/m 16,1 km/h (3 Bft) 100,00 %
15.01.2022 22:46 1,7 C 1,1 C 1,7 C 99 % 1024,6 hPa 0,0 l/m 0 min 0 min 0 W/m 16,1 km/h (3 Bft) 100,00 %
15.01.2022 22:44 1,7 C 1,1 C 1,7 C 99 % 1024,8 hPa 0,0 l/m 0 min 0 min 0 W/m 16,1 km/h (3 Bft) 100,00 %
15.01.2022 22:42 1,7 C 1,1 C 1,7 C 99 % 1024,8 hPa 0,0 l/m 0 min 0 min 0 W/m 9,7 km/h (2 Bft) 100,00 %
15.01.2022 22:40 1,7 C 1,1 C 1,7 C 99 % 1024,8 hPa 0,0 l/m 0 min 0 min 0 W/m 12,9 km/h (3 Bft) 100,00 %
15.01.2022 22:38 1,7 C 1,1 C 1,7 C 99 % 1024,7 hPa 0,0 l/m 0 min 0 min 0 W/m 12,9 km/h (3 Bft) 95,74 %
15.01.2022 22:36 1,7 C 1,1 C 1,7 C 99 % 1024,7 hPa 0,0 l/m 0 min 0 min 0 W/m 9,7 km/h (2 Bft) 100,00 %
15.01.2022 22:34 1,7 C 1,1 C 1,7 C 99 % 1024,7 hPa 0,0 l/m 0 min 0 min 0 W/m 16,1 km/h (3 Bft) 100,00 %
15.01.2022 22:32 1,7 C 1,1 C 1,7 C 99 % 1024,8 hPa 0,0 l/m 0 min 0 min 0 W/m 16,1 km/h (3 Bft) 100,00 %
15.01.2022 22:30 1,7 C 1,1 C 1,7 C 99 % 1024,7 hPa 0,0 l/m 0 min 0 min 0 W/m 19,3 km/h (3 Bft) 97,87 %
15.01.2022 22:28 1,7 C 1,1 C 1,7 C 99 % 1024,8 hPa 0,0 l/m 0 min 0 min 0 W/m 19,3 km/h (3 Bft) 100,00 %
15.01.2022 22:26 1,7 C 1,1 C 1,7 C 99 % 1024,7 hPa 0,0 l/m 0 min 0 min 0 W/m 12,9 km/h (3 Bft) 97,87 %
15.01.2022 22:24 1,7 C 1,1 C 1,7 C 99 % 1024,7 hPa 0,0 l/m 0 min 0 min 0 W/m 12,9 km/h (3 Bft) 95,74 %
15.01.2022 22:22 1,7 C 1,1 C 1,7 C 99 % 1024,8 hPa 0,0 l/m 0 min 0 min 0 W/m 16,1 km/h (3 Bft) 97,83 %
15.01.2022 22:20 1,7 C 1,1 C 1,7 C 99 % 1024,8 hPa 0,0 l/m 0 min 0 min 0 W/m 16,1 km/h (3 Bft) 97,87 %
15.01.2022 22:18 1,7 C 1,1 C 1,7 C 99 % 1024,6 hPa 0,0 l/m 0 min 0 min 0 W/m 19,3 km/h (3 Bft) 97,87 %
15.01.2022 22:16 1,7 C 1,1 C 1,7 C 99 % 1024,7 hPa 0,0 l/m 0 min 0 min 0 W/m 19,3 km/h (3 Bft) 97,87 %
15.01.2022 22:14 1,7 C 1,1 C 1,7 C 99 % 1024,8 hPa 0,0 l/m 0 min 0 min 0 W/m 9,7 km/h (2 Bft) 93,62 %
15.01.2022 22:12 1,7 C 1,1 C 1,7 C 99 % 1024,6 hPa 0,0 l/m 0 min 0 min 0 W/m 22,5 km/h (4 Bft) 95,74 %
15.01.2022 22:10 1,7 C 1,1 C 1,7 C 99 % 1024,8 hPa 0,0 l/m 0 min 0 min 0 W/m 12,9 km/h (3 Bft) 97,83 %
15.01.2022 22:08 1,7 C 1,1 C 1,7 C 99 % 1024,9 hPa 0,0 l/m 0 min 0 min 0 W/m 16,1 km/h (3 Bft) 97,87 %
15.01.2022 22:06 1,7 C 1,1 C 1,7 C 99 % 1024,9 hPa 0,0 l/m 0 min 0 min 0 W/m 16,1 km/h (3 Bft) 97,87 %
15.01.2022 22:04 1,7 C 1,1 C 1,7 C 99 % 1024,9 hPa 0,0 l/m 0 min 0 min 0 W/m 9,7 km/h (2 Bft) 97,87 %
15.01.2022 22:02 1,7 C 1,1 C 1,7 C 99 % 1024,9 hPa 0,0 l/m 0 min 0 min 0 W/m 12,9 km/h (3 Bft) 95,74 %
15.01.2022 22:00 1,7 C 1,1 C 1,7 C 99 % 1025,1 hPa 0,0 l/m 0 min 0 min 0 W/m 19,3 km/h (3 Bft) 97,87 %
_ Min-Zeit 04:26 04:32 22:00 13:44 06:16 - - - - 05:02 00:02
Minimum _ 1,2 C 0,6 C 1,7 C 93 % 1023,3 hPa - - - - 0,0 km/h (0 Bft) 9,52 %
_ Max-Zeit 13:30 13:24 12:46 22:00 20:36 18:34 13:20 18:34 13:26 13:58 22:28
Maximum _ 4,8 C 7,2 C 4,4 C 99 % 1029,0 hPa 0,2 l/m 2 min 2 min 236 W/m 32,2 km/h
S (5 Bft)
100,00 %
Durchschnitt _ 3,0 C 2,6 C 2,6 C 97 % 1025,2 hPa #0,4 l/m #8 min. #14 min. 52 W/m 13,4 km/h (3 Bft) 97,24 %
© 2022 W. Hausmann